KC5DAQ-28 Weather Reports


Display with metric or nautical units.
time (UTC)temp
F
wind
direction
speed
MPH
gust
MPH
rain 1hr
in
rain 24hr
in
rain mn
in
humidity
%
barometer
mb
20260507130627 64 330 10.0 14.0 0.00 0.00 0.00 86 1010.3
20260507130527 64 338 9.0 14.0 0.00 0.00 0.00 86 1010.3
20260507130426 64 353 8.0 14.0 0.00 0.00 0.00 86 1010.3
20260507130325 64 331 9.0 14.0 0.00 0.00 0.00 86 1010.2
20260507130225 64 350 9.0 14.0 0.00 0.00 0.00 86 1010.2
20260507130125 64 351 9.0 12.0 0.00 0.00 0.00 86 1010.3
20260507130025 64 324 8.0 12.0 0.00 0.00 0.00 86 1010.3
20260507125924 64 343 7.0 10.0 0.00 0.00 0.00 86 1010.3
20260507125825 65 344 7.0 10.0 0.00 0.00 0.00 86 1010.4
20260507125725 65 334 6.0 10.0 0.00 0.00 0.00 86 1010.5
20260507125624 65 327 6.0 11.0 0.00 0.00 0.00 86 1010.4
20260507125525 65 333 6.0 11.0 0.00 0.00 0.00 86 1010.5
20260507125424 65 319 7.0 12.0 0.00 0.00 0.00 86 1010.4
20260507125325 65 341 7.0 13.0 0.00 0.00 0.00 86 1010.4
20260507125224 65 348 6.0 13.0 0.00 0.00 0.00 86 1010.4
20260507125124 65 10 7.0 13.0 0.00 0.00 0.00 86 1010.3
20260507125025 65 306 7.0 13.0 0.00 0.00 0.00 86 1010.3
20260507124925 65 331 7.0 15.0 0.00 0.00 0.00 86 1010.3
20260507124824 65 351 7.0 15.0 0.00 0.00 0.00 86 1010.3
20260507124725 65 327 8.0 15.0 0.00 0.00 0.00 86 1010.2
20260507124624 65 333 8.0 15.0 0.00 0.00 0.00 86 1010.2
20260507124525 65 338 10.0 15.0 0.00 0.00 0.00 86 1010.2
20260507124425 65 353 10.0 15.0 0.00 0.00 0.00 86 1010.2
20260507124325 65 351 9.0 15.0 0.00 0.00 0.00 86 1010.2
20260507124225 65 337 10.0 15.0 0.00 0.00 0.00 86 1010.2
20260507124123 65 348 10.0 15.0 0.00 0.00 0.00 86 1010.2
20260507124023 65 338 10.0 15.0 0.00 0.00 0.00 86 1010.3
20260507123925 65 354 9.0 12.0 0.00 0.00 0.00 86 1010.1
20260507123825 65 6 9.0 12.0 0.00 0.00 0.00 86 1010.1
20260507123725 65 327 9.0 12.0 0.00 0.00 0.00 86 1010.2
20260507123626 65 341 9.0 12.0 0.00 0.00 0.00 86 1010.2
20260507123523 65 336 8.0 12.0 0.00 0.00 0.00 86 1010.2
20260507123424 65 0 8.0 12.0 0.00 0.00 0.00 86 1010.2
20260507123324 65 330 8.0 12.0 0.00 0.00 0.00 86 1010.1
20260507123224 65 327 7.0 12.0 0.00 0.00 0.00 86 1010.1
20260507123125 65 316 8.0 12.0 0.00 0.00 0.00 86 1010.0
20260507123024 65 344 8.0 12.0 0.00 0.00 0.00 86 1010.0
20260507122923 65 326 8.0 12.0 0.00 0.00 0.00 86 1009.8
20260507122824 65 0 7.0 11.0 0.00 0.00 0.00 86 1009.7
20260507122723 65 330 6.0 14.0 0.00 0.00 0.00 86 1009.7
20260507122624 65 323 6.0 14.0 0.00 0.00 0.00 86 1009.6
20260507122524 65 329 6.0 15.0 0.00 0.00 0.00 86 1009.7
20260507122423 65 341 7.0 15.0 0.00 0.00 0.00 86 1009.6
20260507122323 65 337 8.0 15.0 0.00 0.00 0.00 86 1009.6
20260507122224 65 347 8.0 15.0 0.00 0.00 0.00 86 1009.6
20260507122124 65 345 8.0 15.0 0.00 0.00 0.00 86 1009.5
20260507122023 65 348 7.0 15.0 0.00 0.00 0.00 87 1009.4
20260507121924 65 336 9.0 15.0 0.00 0.00 0.00 87 1009.4
20260507121823 65 337 10.0 15.0 0.00 0.00 0.00 87 1009.3
20260507121723 65 0 10.0 15.0 0.00 0.00 0.00 87 1009.3
20260507121624 65 343 10.0 15.0 0.00 0.00 0.00 87 1009.4
20260507121525 65 0 9.0 13.0 0.00 0.00 0.00 87 1009.4
20260507121423 65 353 9.0 13.0 0.00 0.00 0.00 87 1009.5
20260507121325 65 0 7.0 12.0 0.00 0.00 0.00 87 1009.6
20260507121224 65 358 6.0 12.0 0.00 0.00 0.00 87 1009.6
20260507121124 65 340 7.0 12.0 0.00 0.00 0.00 87 1009.6
20260507121023 65 338 7.0 12.0 0.00 0.00 0.00 87 1009.7
20260507120924 65 321 7.0 12.0 0.00 0.00 0.00 87 1009.6
20260507120824 65 323 7.0 12.0 0.00 0.00 0.00 87 1009.6
20260507120723 65 323 8.0 12.0 0.00 0.00 0.00 87 1009.4
20260507120624 65 357 7.0 12.0 0.00 0.00 0.00 87 1009.4
20260507120524 65 347 6.0 11.0 0.00 0.00 0.00 87 1009.2
20260507120424 65 338 5.0 11.0 0.00 0.00 0.00 87 1009.2
20260507120323 65 0 5.0 11.0 0.00 0.00 0.00 87 1009.1
20260507120224 65 0 5.0 11.0 0.00 0.00 0.00 87 1009.0
20260507120123 65 336 5.0 11.0 0.00 0.00 0.00 87 1009.0
20260507120024 65 0 6.0 11.0 0.00 0.00 0.00 87 1008.9
20260507115923 65 330 6.0 11.0 0.00 0.00 0.00 87 1009.1
20260507115825 65 337 7.0 14.0 0.00 0.00 0.00 87 1009.1
20260507115723 65 358 6.0 14.0 0.00 0.00 0.00 87 1009.1
20260507115623 65 344 5.0 14.0 0.00 0.00 0.00 87 1009.1
20260507115525 65 331 5.0 14.0 0.00 0.00 0.00 86 1009.0
20260507115422 65 358 7.0 14.0 0.00 0.00 0.00 86 1008.9
20260507115324 65 354 7.0 14.0 0.00 0.00 0.00 86 1008.9
20260507115223 65 354 7.0 14.0 0.00 0.00 0.00 86 1008.8
20260507115123 65 0 7.0 14.0 0.00 0.00 0.00 86 1008.8
20260507115023 65 341 9.0 14.0 0.00 0.00 0.00 86 1008.9
20260507114923 65 334 8.0 14.0 0.00 0.00 0.00 86 1008.8
20260507114822 65 0 6.0 13.0 0.00 0.00 0.00 86 1008.8
20260507114722 65 351 8.0 13.0 0.00 0.00 0.00 86 1008.8
20260507114625 65 0 9.0 13.0 0.00 0.00 0.00 86 1008.8
20260507114522 65 358 8.0 13.0 0.00 0.00 0.00 86 1008.8
20260507114424 65 341 7.0 13.0 0.00 0.00 0.00 86 1008.8
20260507114322 65 0 8.0 13.0 0.00 0.00 0.00 86 1008.8
20260507114224 65 319 8.0 13.0 0.00 0.00 0.00 86 1008.9
20260507114124 65 0 8.0 13.0 0.00 0.00 0.00 86 1008.8
20260507114022 65 341 7.0 13.0 0.00 0.00 0.00 86 1008.8
20260507113924 65 358 7.0 12.0 0.00 0.00 0.00 86 1008.8
20260507113823 65 330 8.0 12.0 0.00 0.00 0.00 86 1008.7
20260507113710 65 347 8.0 12.0 0.00 0.00 0.00 86 1008.7
20260507113602 65 354 7.0 12.0 0.00 0.00 0.00 86 1008.7
20260507113505 65 336 7.0 12.0 0.00 0.00 0.00 86 1008.7
20260507113403 65 323 8.0 12.0 0.00 0.00 0.00 86 1008.7
20260507113303 65 338 8.0 12.0 0.00 0.00 0.00 86 1008.7
20260507113203 65 351 8.0 13.0 0.00 0.00 0.00 86 1008.8
20260507113102 65 344 8.0 13.0 0.00 0.00 0.00 86 1008.7
20260507113005 65 353 9.0 13.0 0.00 0.00 0.00 86 1008.7
20260507112901 65 343 9.0 13.0 0.00 0.00 0.00 86 1008.7
20260507112801 65 341 7.0 13.0 0.00 0.00 0.00 86 1008.8
20260507112702 66 333 6.0 13.0 0.00 0.00 0.00 86 1008.6
20260507112602 66 341 7.0 13.0 0.00 0.00 0.00 86 1008.7
20260507112504 66 341 7.0 13.0 0.00 0.00 0.00 86 1008.6
20260507112358 66 347 9.0 13.0 0.00 0.00 0.00 86 1008.6
20260507112257 66 329 10.0 13.0 0.00 0.00 0.00 86 1008.6
20260507112155 66 343 7.0 14.0 0.00 0.00 0.00 86 1008.6
20260507112049 66 0 6.0 14.0 0.00 0.00 0.00 86 1008.5
20260507111947 66 0 6.0 14.0 0.00 0.00 0.00 86 1008.4
20260507111844 66 345 6.0 14.0 0.00 0.00 0.00 86 1008.4
20260507111744 66 0 6.0 14.0 0.00 0.00 0.00 86 1008.3
20260507111639 66 343 7.0 14.0 0.00 0.00 0.00 86 1008.3
20260507111538 66 350 8.0 14.0 0.00 0.00 0.00 86 1008.2
20260507111437 66 0 9.0 14.0 0.00 0.00 0.00 86 1008.2
20260507111335 66 343 11.0 14.0 0.00 0.00 0.00 86 1008.1
20260507111231 66 358 11.0 14.0 0.00 0.00 0.00 86 1008.1
20260507111133 66 354 9.0 14.0 0.00 0.00 0.00 86 1008.2
20260507111031 66 351 7.0 10.0 0.00 0.00 0.00 85 1008.3
20260507110933 66 338 7.0 10.0 0.00 0.00 0.00 85 1008.4
20260507110831 66 344 6.0 10.0 0.00 0.00 0.00 85 1008.5
20260507110732 66 333 6.0 10.0 0.00 0.00 0.00 85 1008.5
20260507110633 66 0 6.0 10.0 0.00 0.00 0.00 85 1008.5
20260507110532 66 347 6.0 10.0 0.00 0.00 0.00 86 1008.5
20260507110431 66 0 6.0 10.0 0.00 0.00 0.00 86 1008.4
20260507110331 66 0 6.0 10.0 0.00 0.00 0.00 86 1008.4
20260507110232 66 350 6.0 10.0 0.00 0.00 0.00 85 1008.4
20260507110131 66 350 6.0 10.0 0.00 0.00 0.00 85 1008.3
20260507110022 66 0 6.0 10.0 0.00 0.00 0.00 85 1008.3
20260507105923 66 351 6.0 10.0 0.00 0.00 0.00 85 1008.4
20260507105821 66 0 6.0 9.0 0.00 0.00 0.00 85 1008.4
20260507105722 66 330 6.0 9.0 0.00 0.00 0.00 85 1008.4
20260507105624 66 343 6.0 9.0 0.00 0.00 0.00 85 1008.3
20260507105521 66 348 6.0 9.0 0.00 0.00 0.00 86 1008.2
20260507105422 66 358 6.0 9.0 0.00 0.00 0.00 86 1008.3
20260507105321 66 350 6.0 9.0 0.00 0.00 0.00 86 1008.0
20260507105221 66 354 6.0 9.0 0.00 0.00 0.00 85 1008.1
20260507105122 66 351 7.0 9.0 0.00 0.00 0.00 85 1008.1
20260507105022 66 10 6.0 9.0 0.00 0.00 0.00 86 1008.1
20260507104923 66 340 5.0 9.0 0.00 0.00 0.00 86 1008.3
20260507104823 66 317 4.0 9.0 0.00 0.00 0.00 86 1008.3
20260507104722 66 334 3.0 9.0 0.00 0.00 0.00 85 1008.3
20260507104621 66 345 3.0 9.0 0.00 0.00 0.00 85 1008.3
20260507104521 66 1 5.0 9.0 0.00 0.00 0.00 85 1008.2
20260507104421 66 358 6.0 9.0 0.00 0.00 0.00 85 1008.2
20260507104323 66 0 6.0 7.0 0.00 0.00 0.00 85 1008.2
20260507104222 66 357 6.0 7.0 0.00 0.00 0.00 85 1008.2
20260507104121 66 348 6.0 7.0 0.00 0.00 0.00 85 1008.0
20260507104023 66 0 6.0 7.0 0.00 0.00 0.00 85 1008.0
20260507103921 66 331 6.0 7.0 0.00 0.00 0.00 85 1008.0
20260507103821 66 345 5.0 7.0 0.00 0.00 0.00 85 1008.0
20260507103722 66 333 5.0 7.0 0.00 0.00 0.00 85 1008.0
20260507103622 66 24 4.0 7.0 0.00 0.00 0.00 85 1007.9
20260507103522 66 348 4.0 7.0 0.00 0.00 0.00 85 1008.0
20260507103421 66 0 3.0 7.0 0.00 0.00 0.00 85 1008.1
20260507103320 66 0 3.0 9.0 0.00 0.00 0.00 85 1008.1
20260507103222 66 0 3.0 9.0 0.00 0.00 0.00 85 1008.1
20260507103122 66 34 3.0 9.0 0.00 0.00 0.00 86 1008.1
20260507103022 66 0 2.0 9.0 0.00 0.00 0.00 86 1008.0
20260507102920 66 0 3.0 9.0 0.00 0.00 0.00 86 1008.1
20260507102823 66 0 5.0 9.0 0.00 0.00 0.00 86 1008.1
20260507102720 66 0 4.0 9.0 0.00 0.00 0.00 86 1008.0
20260507102618 66 0 4.0 9.0 0.00 0.00 0.00 86 1008.0
20260507102514 66 3 5.0 9.0 0.00 0.00 0.00 86 1007.9
20260507102413 66 0 5.0 9.0 0.00 0.00 0.00 85 1007.9
20260507102306 66 357 5.0 7.0 0.00 0.00 0.00 85 1007.9
20260507102202 66 358 5.0 7.0 0.00 0.00 0.00 85 1007.9
20260507102103 66 353 6.0 7.0 0.00 0.00 0.00 85 1007.9
20260507102002 66 0 6.0 11.0 0.00 0.00 0.00 85 1008.0
20260507101903 66 357 5.0 11.0 0.00 0.00 0.00 86 1008.0
20260507101802 66 4 4.0 11.0 0.00 0.00 0.00 86 1008.0
20260507101703 66 358 4.0 11.0 0.00 0.00 0.00 86 1008.0
20260507101604 66 0 5.0 11.0 0.00 0.00 0.00 86 1008.0
20260507101502 66 4 5.0 11.0 0.00 0.00 0.00 86 1007.9
20260507101404 66 10 5.0 11.0 0.00 0.00 0.00 86 1008.0
20260507101302 66 355 5.0 11.0 0.00 0.00 0.00 86 1007.9
20260507101204 66 0 6.0 11.0 0.00 0.00 0.00 86 1007.9
20260507101103 66 0 6.0 11.0 0.00 0.00 0.00 86 1008.0
20260507101003 66 0 4.0 10.0 0.00 0.00 0.00 86 1008.1
20260507100903 66 1 4.0 10.0 0.00 0.00 0.00 86 1008.1
20260507100802 66 0 5.0 10.0 0.00 0.00 0.00 86 1008.0
20260507100703 66 357 5.0 10.0 0.00 0.00 0.00 86 1008.0
20260507100603 66 354 4.0 10.0 0.00 0.00 0.00 86 1007.9
20260507100505 66 0 4.0 10.0 0.00 0.00 0.00 86 1007.9
20260507100403 66 1 5.0 10.0 0.00 0.00 0.00 86 1007.8
20260507100302 66 0 7.0 10.0 0.00 0.00 0.00 86 1007.7
20260507100203 66 347 6.0 10.0 0.00 0.00 0.00 86 1007.7
20260507100104 66 0 4.0 9.0 0.00 0.00 0.00 86 1007.6
20260507100004 66 358 5.0 10.0 0.00 0.00 0.00 86 1007.6
20260507095903 66 6 5.0 10.0 0.00 0.00 0.00 86 1007.6
20260507095802 66 8 4.0 10.0 0.00 0.00 0.00 86 1007.7
20260507095702 66 4 5.0 10.0 0.00 0.00 0.00 86 1007.7
20260507095602 66 354 6.0 10.0 0.00 0.00 0.00 86 1007.7
20260507095501 66 0 4.0 10.0 0.00 0.00 0.00 86 1007.8
20260507095401 66 331 4.0 10.0 0.00 0.00 0.00 86 1007.7
20260507095306 66 347 5.0 10.0 0.00 0.00 0.00 86 1007.7
20260507095202 66 0 6.0 10.0 0.00 0.00 0.00 86 1007.7
20260507095104 66 0 6.0 10.0 0.00 0.00 0.00 86 1007.6
20260507095005 66 340 5.0 9.0 0.00 0.00 0.00 86 1007.7
20260507094903 66 0 4.0 9.0 0.00 0.00 0.00 86 1007.7
20260507094803 66 350 4.0 9.0 0.00 0.00 0.00 86 1007.6
20260507094704 66 350 4.0 9.0 0.00 0.00 0.00 86 1007.7
20260507094603 66 16 5.0 9.0 0.00 0.00 0.00 86 1007.6
20260507094503 66 0 6.0 9.0 0.00 0.00 0.00 86 1007.5
20260507094402 66 348 6.0 9.0 0.00 0.00 0.00 86 1007.5
20260507094303 66 354 5.0 9.0 0.00 0.00 0.00 86 1007.5
20260507094205 66 0 5.0 9.0 0.00 0.00 0.00 86 1007.5
20260507094104 66 345 6.0 9.0 0.00 0.00 0.00 86 1007.4
20260507094002 66 358 6.0 9.0 0.00 0.00 0.00 86 1007.4
20260507093902 66 354 6.0 9.0 0.00 0.00 0.00 86 1007.5
20260507093803 66 353 6.0 9.0 0.00 0.00 0.00 86 1007.5
20260507093702 66 341 5.0 9.0 0.00 0.00 0.00 86 1007.5
20260507093602 66 347 6.0 9.0 0.00 0.00 0.00 86 1007.7
20260507093503 66 341 6.0 9.0 0.00 0.00 0.00 86 1007.7
20260507093402 65 344 6.0 9.0 0.00 0.00 0.00 86 1007.7
20260507093304 65 0 6.0 10.0 0.00 0.00 0.00 86 1007.7
20260507093203 66 350 5.0 10.0 0.00 0.00 0.00 86 1007.7
20260507093104 65 324 5.0 10.0 0.00 0.00 0.00 86 1007.7
20260507093001 66 341 5.0 10.0 0.00 0.00 0.00 86 1007.7
20260507092902 66 305 5.0 10.0 0.00 0.00 0.00 86 1007.6
20260507092803 65 340 5.0 11.0 0.00 0.00 0.00 86 1007.4
20260507092704 65 0 4.0 11.0 0.00 0.00 0.00 86 1007.2
20260507092603 65 21 4.0 11.0 0.00 0.00 0.00 86 1007.2
20260507092502 65 24 5.0 11.0 0.00 0.00 0.00 86 1007.2
20260507092402 65 11 6.0 11.0 0.00 0.00 0.00 86 1007.1
20260507092307 65 0 6.0 11.0 0.00 0.00 0.00 86 1007.1
20260507092202 65 345 5.0 11.0 0.00 0.00 0.00 86 1007.1
20260507092103 65 343 5.0 11.0 0.00 0.00 0.00 86 1007.1
20260507091957 65 11 5.0 11.0 0.00 0.00 0.00 86 1007.0
20260507091855 65 0 6.0 11.0 0.00 0.00 0.00 86 1007.0
20260507091754 66 348 6.0 10.0 0.00 0.00 0.00 86 1007.1
20260507091642 66 0 5.0 10.0 0.00 0.00 0.00 86 1007.1
20260507091539 65 348 5.0 10.0 0.00 0.00 0.00 86 1007.2
20260507091436 65 345 4.0 10.0 0.00 0.00 0.00 86 1007.2
20260507091332 65 348 4.0 10.0 0.00 0.00 0.00 86 1007.3
20260507091232 65 0 4.0 10.0 0.00 0.00 0.00 86 1007.2
20260507091133 65 13 4.0 10.0 0.00 0.00 0.00 86 1007.2
20260507091033 65 0 3.0 10.0 0.00 0.00 0.00 85 1007.2
20260507090931 65 20 3.0 10.0 0.00 0.00 0.00 85 1007.1
20260507090831 65 0 6.0 10.0 0.00 0.00 0.00 85 1007.1
20260507090731 65 0 7.0 10.0 0.00 0.00 0.00 85 1007.1
20260507090633 65 6 6.0 11.0 0.00 0.00 0.00 85 1007.1
20260507090532 66 0 6.0 11.0 0.00 0.00 0.00 85 1007.2
20260507090431 66 0 5.0 11.0 0.00 0.00 0.00 85 1007.2
20260507090333 65 340 4.0 11.0 0.00 0.00 0.00 85 1007.2
20260507090232 66 357 5.0 11.0 0.00 0.00 0.00 85 1007.3
20260507090131 66 1 5.0 11.0 0.00 0.00 0.00 85 1007.4
20260507090033 66 0 4.0 11.0 0.00 0.00 0.00 85 1007.3
20260507085932 66 0 4.0 11.0 0.00 0.00 0.00 85 1007.3
20260507085833 66 347 5.0 11.0 0.00 0.00 0.00 85 1007.3
20260507085726 66 0 7.0 11.0 0.00 0.00 0.00 85 1007.3
20260507085620 66 0 7.0 11.0 0.00 0.00 0.00 85 1007.3
20260507085519 66 358 6.0 9.0 0.00 0.00 0.00 85 1007.3
20260507085420 66 340 5.0 9.0 0.00 0.00 0.00 85 1007.2
20260507085320 66 343 4.0 7.0 0.00 0.00 0.00 85 1007.4
20260507085218 66 3 4.0 10.0 0.00 0.00 0.00 85 1007.3
20260507085120 66 350 4.0 10.0 0.00 0.00 0.00 85 1007.3
20260507085020 66 6 4.0 10.0 0.00 0.00 0.00 85 1007.3
20260507084918 66 3 4.0 10.0 0.00 0.00 0.00 85 1007.3
20260507084818 66 6 4.0 10.0 0.00 0.00 0.00 85 1007.3
20260507084719 66 16 5.0 10.0 0.00 0.00 0.00 85 1007.3
20260507084619 66 0 6.0 10.0 0.00 0.00 0.00 85 1007.4
20260507084520 66 0 6.0 10.0 0.00 0.00 0.00 85 1007.5
20260507084420 66 357 6.0 10.0 0.00 0.00 0.00 85 1007.6
20260507084318 66 0 6.0 10.0 0.00 0.00 0.00 85 1007.5
20260507084218 66 0 5.0 9.0 0.00 0.00 0.00 85 1007.6
20260507084120 66 355 4.0 9.0 0.00 0.00 0.00 85 1007.6
20260507084019 66 10 4.0 9.0 0.00 0.00 0.00 85 1007.6
20260507083919 66 23 4.0 9.0 0.00 0.00 0.00 85 1007.7
20260507083820 66 0 5.0 9.0 0.00 0.00 0.00 85 1007.6
20260507083719 66 7 5.0 9.0 0.00 0.00 0.00 85 1007.6
20260507083619 66 3 5.0 9.0 0.00 0.00 0.00 85 1007.6
20260507083519 66 10 6.0 10.0 0.00 0.00 0.00 85 1007.5
20260507083420 66 10 5.0 11.0 0.00 0.00 0.00 85 1007.5
20260507083318 66 0 5.0 11.0 0.00 0.00 0.00 85 1007.5
20260507083219 66 334 5.0 11.0 0.00 0.00 0.00 85 1007.4
20260507083119 66 0 6.0 12.0 0.00 0.00 0.00 85 1007.4
20260507083019 66 0 6.0 12.0 0.00 0.00 0.00 85 1007.4
20260507082918 66 3 7.0 12.0 0.00 0.00 0.00 85 1007.5
20260507082818 66 0 7.0 12.0 0.00 0.00 0.00 85 1007.5
20260507082719 66 353 6.0 12.0 0.00 0.00 0.00 85 1007.5
20260507082618 66 350 6.0 12.0 0.00 0.00 0.00 85 1007.5
20260507082519 66 327 7.0 12.0 0.00 0.00 0.00 85 1007.5
20260507082419 66 350 6.0 12.0 0.00 0.00 0.00 85 1007.5
20260507082320 66 345 8.0 12.0 0.00 0.00 0.00 85 1007.5
20260507082217 66 8 9.0 12.0 0.00 0.00 0.00 85 1007.5
20260507082117 66 338 9.0 12.0 0.00 0.00 0.00 84 1007.6
20260507082019 66 1 9.0 12.0 0.00 0.00 0.00 85 1007.6
20260507081920 66 343 8.0 12.0 0.00 0.00 0.00 84 1007.7
20260507081820 66 345 7.0 12.0 0.00 0.00 0.00 85 1007.6
20260507081717 66 0 7.0 12.0 0.00 0.00 0.00 85 1007.6
20260507081620 66 0 9.0 12.0 0.00 0.00 0.00 84 1007.5
20260507081518 66 357 9.0 12.0 0.00 0.00 0.00 84 1007.4
20260507081417 66 354 8.0 11.0 0.00 0.00 0.00 84 1007.4
20260507081318 66 354 8.0 11.0 0.00 0.00 0.00 84 1007.2
20260507081219 66 350 8.0 11.0 0.00 0.00 0.00 84 1007.2
20260507081119 66 0 7.0 11.0 0.00 0.00 0.00 84 1007.2
20260507081019 66 0 6.0 11.0 0.00 0.00 0.00 84 1007.4
20260507080918 66 353 5.0 11.0 0.00 0.00 0.00 84 1007.4
20260507080819 66 357 5.0 11.0 0.00 0.00 0.00 84 1007.5
20260507080718 66 357 5.0 11.0 0.00 0.00 0.00 84 1007.4
20260507080619 66 353 7.0 11.0 0.00 0.00 0.00 84 1007.5
20260507080518 66 0 7.0 11.0 0.00 0.00 0.00 84 1007.4
20260507080419 66 0 6.0 11.0 0.00 0.00 0.00 84 1007.5
20260507080317 66 0 8.0 11.0 0.00 0.00 0.00 84 1007.5
20260507080218 66 347 8.0 11.0 0.00 0.00 0.00 84 1007.5
20260507080119 66 345 7.0 11.0 0.00 0.00 0.00 84 1007.5
20260507080018 66 343 6.0 11.0 0.00 0.00 0.00 84 1007.6
20260507075918 66 314 6.0 11.0 0.00 0.00 0.00 84 1007.6
20260507075818 66 338 6.0 11.0 0.00 0.00 0.00 84 1007.7
20260507075717 66 331 7.0 11.0 0.00 0.00 0.00 84 1007.6
20260507075617 66 0 7.0 11.0 0.00 0.00 0.00 84 1007.5
20260507075519 66 340 7.0 12.0 0.00 0.00 0.00 84 1007.3
20260507075418 66 357 8.0 12.0 0.00 0.00 0.00 84 1007.3
20260507075317 66 338 8.0 12.0 0.00 0.00 0.00 84 1007.2
20260507075218 66 0 6.0 12.0 0.00 0.00 0.00 84 1007.3
20260507075111 66 354 6.0 12.0 0.00 0.00 0.00 84 1007.4
20260507075004 66 0 5.0 12.0 0.00 0.00 0.00 84 1007.4
20260507074901 66 0 5.0 12.0 0.00 0.00 0.00 84 1007.5
20260507074802 66 350 6.0 12.0 0.00 0.00 0.00 84 1007.5
20260507074703 66 343 7.0 12.0 0.00 0.00 0.00 84 1007.5
20260507074603 66 347 6.0 12.0 0.00 0.00 0.00 84 1007.5
20260507074503 66 345 6.0 12.0 0.00 0.00 0.00 84 1007.5
20260507074404 66 343 4.0 12.0 0.00 0.00 0.00 84 1007.5
20260507074302 66 11 4.0 12.0 0.00 0.00 0.00 84 1007.4
20260507074203 66 340 7.0 12.0 0.00 0.00 0.00 84 1007.4
20260507074102 66 353 6.0 12.0 0.00 0.00 0.00 84 1007.3
20260507074003 66 353 6.0 12.0 0.00 0.00 0.00 84 1007.3
20260507073905 66 348 7.0 12.0 0.00 0.00 0.00 84 1007.2
20260507073802 66 340 7.0 12.0 0.00 0.00 0.00 84 1007.2
20260507073703 66 337 8.0 12.0 0.00 0.00 0.00 84 1007.3
20260507073602 66 331 7.0 12.0 0.00 0.00 0.00 84 1007.3
20260507073503 66 358 7.0 14.0 0.00 0.00 0.00 84 1007.4
20260507073402 66 347 7.0 14.0 0.00 0.00 0.00 84 1007.5
20260507073304 66 326 7.0 14.0 0.00 0.00 0.00 84 1007.6
20260507073203 66 353 8.0 14.0 0.00 0.00 0.00 84 1007.7
20260507073102 66 345 8.0 14.0 0.00 0.00 0.00 84 1007.7
20260507073003 66 333 8.0 14.0 0.00 0.00 0.00 83 1007.8
20260507072903 66 0 8.0 14.0 0.00 0.00 0.00 83 1007.8
20260507072803 66 302 8.0 14.0 0.00 0.00 0.00 83 1007.8
20260507072702 66 0 9.0 14.0 0.00 0.00 0.00 83 1007.7
20260507072602 66 353 9.0 14.0 0.00 0.00 0.00 84 1007.7
20260507072503 66 0 8.0 12.0 0.00 0.00 0.00 84 1007.8
20260507072403 66 340 8.0 12.0 0.00 0.00 0.00 84 1007.8
20260507072306 66 345 9.0 12.0 0.00 0.00 0.00 84 1007.7
20260507072204 66 337 9.0 12.0 0.00 0.00 0.00 84 1007.8
20260507072102 66 333 8.0 12.0 0.00 0.00 0.00 84 1007.8
20260507072004 66 337 8.0 12.0 0.00 0.00 0.00 84 1007.9
20260507071903 66 351 8.0 12.0 0.00 0.00 0.00 84 1007.9
20260507071803 66 337 7.0 12.0 0.00 0.00 0.00 84 1007.9
20260507071702 66 341 8.0 12.0 0.00 0.00 0.00 84 1007.8
20260507071603 66 324 8.0 13.0 0.00 0.00 0.00 84 1007.8
20260507071503 66 337 7.0 13.0 0.00 0.00 0.00 84 1007.7
20260507071402 66 317 7.0 13.0 0.00 0.00 0.00 84 1007.8
20260507071303 66 358 6.0 13.0 0.00 0.00 0.00 84 1007.8
20260507071202 66 337 9.0 13.0 0.00 0.00 0.00 84 1007.8
20260507071103 66 345 10.0 13.0 0.00 0.00 0.00 83 1007.8
20260507071005 66 333 9.0 13.0 0.00 0.00 0.00 83 1007.8
20260507070903 66 334 8.0 13.0 0.00 0.00 0.00 83 1007.7
20260507070803 66 355 9.0 13.0 0.00 0.00 0.00 83 1007.7
20260507070702 66 14 9.0 13.0 0.00 0.00 0.00 83 1007.8
20260507070602 66 355 7.0 12.0 0.00 0.00 0.00 84 1007.7
20260507070503 66 343 6.0 12.0 0.00 0.00 0.00 83 1007.7
20260507070402 66 357 7.0 12.0 0.00 0.00 0.00 84 1007.8
20260507070302 66 350 8.0 12.0 0.00 0.00 0.00 84 1007.9
20260507070202 66 0 9.0 12.0 0.00 0.00 0.00 84 1007.9
20260507070003 66 327 7.0 12.0 0.00 0.00 0.00 83 1008.1
20260507065904 66 344 8.0 12.0 0.00 0.00 0.00 83 1008.1
20260507065804 66 345 9.0 12.0 0.00 0.00 0.00 83 1008.0
20260507065704 66 334 9.0 12.0 0.00 0.00 0.00 83 1008.1
20260507065602 66 327 9.0 12.0 0.00 0.00 0.00 83 1008.0
20260507065504 66 324 7.0 12.0 0.00 0.00 0.00 83 1008.1
20260507065402 66 329 6.0 12.0 0.00 0.00 0.00 83 1008.1
20260507065305 66 340 7.0 12.0 0.00 0.00 0.00 84 1008.1
20260507065203 66 320 8.0 12.0 0.00 0.00 0.00 84 1008.1
20260507065103 66 309 8.0 12.0 0.00 0.00 0.00 83 1008.2
20260507065004 66 330 9.0 13.0 0.00 0.00 0.00 83 1008.1
20260507064902 66 312 9.0 13.0 0.00 0.00 0.00 83 1008.0
20260507064802 66 336 10.0 13.0 0.00 0.00 0.00 83 1008.0
20260507064703 66 343 10.0 13.0 0.00 0.00 0.00 83 1007.9
20260507064604 66 351 9.0 13.0 0.00 0.00 0.00 83 1007.9
20260507064504 66 344 8.0 13.0 0.00 0.00 0.00 83 1007.9
20260507064402 66 348 7.0 13.0 0.00 0.00 0.00 83 1007.9
20260507064302 66 345 7.0 13.0 0.00 0.00 0.00 83 1007.9
20260507064203 66 316 9.0 15.0 0.00 0.00 0.00 83 1007.9
20260507064102 66 353 10.0 15.0 0.00 0.00 0.00 83 1007.8
20260507064002 66 353 9.0 15.0 0.00 0.00 0.00 83 1007.8
20260507063905 66 357 8.0 15.0 0.00 0.00 0.00 83 1007.8
20260507063803 66 345 8.0 15.0 0.00 0.00 0.00 83 1007.8
20260507063703 66 321 7.0 15.0 0.00 0.00 0.00 83 1007.7
20260507063602 66 345 7.0 15.0 0.00 0.00 0.00 83 1007.9
20260507063503 66 340 6.0 15.0 0.00 0.00 0.00 83 1007.9
20260507063403 66 0 9.0 15.0 0.00 0.00 0.00 83 1007.9
20260507063302 67 341 9.0 15.0 0.00 0.00 0.00 83 1008.0
20260507063203 67 312 9.0 12.0 0.00 0.00 0.00 83 1008.0
20260507063102 67 323 9.0 12.0 0.00 0.00 0.00 83 1008.1
20260507063004 67 347 8.0 12.0 0.00 0.00 0.00 83 1008.1
20260507062902 67 338 7.0 11.0 0.00 0.00 0.00 83 1008.0
20260507062802 67 290 6.0 11.0 0.00 0.00 0.00 83 1008.0
20260507062703 67 317 7.0 12.0 0.00 0.00 0.00 83 1007.9
20260507062603 67 296 7.0 12.0 0.00 0.00 0.00 83 1007.8
20260507062503 67 320 8.0 12.0 0.00 0.00 0.00 83 1007.8
20260507062403 67 334 7.0 12.0 0.00 0.00 0.00 83 1007.7
20260507062306 67 333 7.0 12.0 0.00 0.00 0.00 83 1007.8
20260507062203 67 337 6.0 12.0 0.00 0.00 0.00 83 1007.6
20260507062102 67 316 6.0 12.0 0.00 0.00 0.00 83 1007.6
20260507062003 67 347 7.0 12.0 0.00 0.00 0.00 83 1007.6
20260507061902 67 0 9.0 13.0 0.00 0.00 0.00 83 1007.6
20260507061803 67 0 9.0 13.0 0.00 0.00 0.00 83 1007.6
20260507061704 67 358 9.0 13.0 0.00 0.00 0.00 83 1007.6
20260507061603 67 351 9.0 13.0 0.00 0.00 0.00 83 1007.7
20260507061504 67 319 9.0 13.0 0.00 0.00 0.00 83 1007.8
20260507061404 67 348 9.0 14.0 0.00 0.00 0.00 83 1007.9
20260507061303 67 343 8.0 14.0 0.00 0.00 0.00 83 1007.9
20260507061202 67 314 7.0 14.0 0.00 0.00 0.00 83 1008.0
20260507061104 67 333 8.0 14.0 0.00 0.00 0.00 83 1008.0
20260507061004 67 329 9.0 14.0 0.00 0.00 0.00 83 1007.9
20260507060904 67 340 6.0 14.0 0.00 0.00 0.00 83 1007.9
20260507060803 67 324 6.0 14.0 0.00 0.00 0.00 83 1007.9
20260507060703 67 319 8.0 14.0 0.00 0.00 0.00 83 1007.8
20260507060603 67 319 10.0 14.0 0.00 0.00 0.00 83 1007.9
20260507060502 67 345 10.0 14.0 0.00 0.00 0.00 83 1007.8
20260507060402 67 310 8.0 13.0 0.00 0.00 0.00 83 1007.7
20260507060303 67 324 7.0 13.0 0.00 0.00 0.00 83 1007.6
20260507060202 67 348 7.0 13.0 0.00 0.00 0.00 83 1007.6
20260507060104 67 354 9.0 13.0 0.00 0.00 0.00 83 1007.5
20260507060003 67 351 8.0 13.0 0.00 0.00 0.00 83 1007.5
20260507055902 67 354 8.0 13.0 0.00 0.00 0.00 83 1007.6
20260507055803 67 324 9.0 12.0 0.00 0.00 0.00 83 1007.5
20260507055702 67 0 9.0 12.0 0.00 0.00 0.00 83 1007.5
20260507055603 67 341 8.0 12.0 0.00 0.00 0.00 83 1007.6
20260507055504 67 345 7.0 12.0 0.00 0.00 0.00 83 1007.5
20260507055402 67 334 8.0 12.0 0.00 0.00 0.00 83 1007.5
20260507055306 67 316 8.0 12.0 0.00 0.00 0.00 83 1007.5
20260507055202 67 337 7.0 12.0 0.00 0.00 0.00 83 1007.6
20260507055103 67 317 8.0 12.0 0.00 0.00 0.00 83 1007.6
20260507055004 67 320 8.0 14.0 0.00 0.00 0.00 83 1007.6
20260507054903 67 313 8.0 14.0 0.00 0.00 0.00 83 1007.5
20260507054802 67 337 9.0 14.0 0.00 0.00 0.00 83 1007.5
20260507054703 67 329 9.0 14.0 0.00 0.00 0.00 83 1007.5
20260507054602 67 348 8.0 14.0 0.00 0.00 0.00 83 1007.4
20260507054505 67 312 8.0 14.0 0.00 0.00 0.00 83 1007.6
20260507054402 67 336 9.0 14.0 0.00 0.00 0.00 83 1007.6
20260507054303 67 341 9.0 14.0 0.00 0.00 0.00 83 1007.6
20260507054203 67 340 9.0 14.0 0.00 0.00 0.00 83 1007.7
20260507054104 67 341 9.0 14.0 0.00 0.00 0.00 83 1007.6
20260507054002 67 324 7.0 11.0 0.00 0.00 0.00 83 1007.7
20260507053903 67 0 6.0 11.0 0.00 0.00 0.00 83 1007.6
20260507053802 67 312 5.0 11.0 0.00 0.00 0.00 83 1007.5
20260507053703 67 336 6.0 11.0 0.00 0.00 0.00 83 1007.4
20260507053603 67 347 7.0 12.0 0.00 0.00 0.00 83 1007.5
20260507053503 67 357 8.0 12.0 0.00 0.00 0.00 83 1007.4
20260507053405 67 330 7.0 12.0 0.00 0.00 0.00 83 1007.5
20260507053304 67 338 7.0 12.0 0.00 0.00 0.00 83 1007.5
20260507053203 67 345 8.0 12.0 0.00 0.00 0.00 83 1007.6
20260507053101 67 319 9.0 12.0 0.00 0.00 0.00 83 1007.6
20260507053005 67 319 7.0 12.0 0.00 0.00 0.00 83 1007.6
20260507052902 67 324 7.0 12.0 0.00 0.00 0.00 83 1007.6
20260507052802 67 306 8.0 12.0 0.00 0.00 0.00 83 1007.5
20260507052704 67 323 8.0 12.0 0.00 0.00 0.00 83 1007.5
20260507052602 67 326 8.0 12.0 0.00 0.00 0.00 83 1007.4
20260507052504 67 321 9.0 12.0 0.00 0.00 0.00 83 1007.5
20260507052403 67 345 8.0 13.0 0.00 0.00 0.00 83 1007.4
20260507052306 67 290 8.0 13.0 0.00 0.00 0.00 83 1007.3
20260507052203 67 319 8.0 13.0 0.00 0.00 0.00 83 1007.3
20260507052101 67 336 8.0 13.0 0.00 0.00 0.00 83 1007.3
20260507052003 67 310 9.0 13.0 0.00 0.00 0.00 83 1007.3
20260507051903 67 338 8.0 13.0 0.00 0.00 0.00 83 1007.3
20260507051804 67 330 8.0 13.0 0.00 0.00 0.00 83 1007.3
20260507051704 67 324 9.0 14.0 0.00 0.00 0.00 83 1007.2
20260507051602 67 330 10.0 14.0 0.00 0.00 0.00 83 1007.3
20260507051504 67 337 10.0 14.0 0.00 0.00 0.00 83 1007.4
20260507051402 67 345 10.0 14.0 0.00 0.00 0.00 83 1007.4
20260507051303 67 323 8.0 14.0 0.00 0.00 0.00 83 1007.3
20260507051203 68 309 9.0 14.0 0.00 0.00 0.00 83 1007.3
20260507051103 68 321 10.0 14.0 0.00 0.00 0.00 83 1007.3
20260507051005 68 353 11.0 14.0 0.00 0.00 0.00 83 1007.4
20260507050903 68 329 11.0 14.0 0.00 0.00 0.00 82 1007.4
20260507050804 68 347 11.0 14.0 0.00 0.00 0.00 82 1007.4
20260507050703 68 320 9.0 12.0 0.00 0.00 0.00 82 1007.4
20260507050602 68 336 10.0 12.0 0.00 0.00 0.00 82 1007.4
20260507050503 68 319 10.0 12.0 0.00 0.00 0.00 82 1007.5
20260507050404 68 341 9.0 12.0 0.00 0.00 0.00 82 1007.3
20260507050303 68 343 8.0 13.0 0.00 0.00 0.00 82 1007.4
20260507050202 68 331 8.0 13.0 0.00 0.00 0.00 82 1007.4
20260507050104 68 321 8.0 13.0 0.00 0.00 0.00 83 1007.4
20260507050003 68 321 7.0 13.0 0.00 0.00 0.00 83 1007.4
20260507045902 68 344 7.0 13.0 0.00 0.00 0.00 82 1007.4
20260507045803 68 347 6.0 13.0 0.00 0.00 0.00 82 1007.4
20260507045703 68 321 6.0 13.0 0.00 0.00 0.00 82 1007.5
20260507045603 68 310 6.0 13.0 0.00 0.00 0.00 82 1007.4
20260507045505 68 323 7.0 13.0 0.00 0.00 0.00 82 1007.4
20260507045402 68 343 8.0 13.0 0.00 0.00 0.00 82 1007.4
20260507045301 68 357 8.0 13.0 0.00 0.00 0.00 82 1007.4
20260507045202 68 338 9.0 13.0 0.00 0.00 0.00 82 1007.4
20260507045104 68 337 10.0 13.0 0.00 0.00 0.00 82 1007.4
20260507045003 68 331 9.0 13.0 0.00 0.00 0.00 82 1007.5
20260507044903 68 338 9.0 12.0 0.00 0.00 0.00 82 1007.5
20260507044804 68 341 8.0 13.0 0.00 0.00 0.00 82 1007.5
20260507044703 68 319 7.0 14.0 0.00 0.00 0.00 82 1007.4
20260507044603 68 350 7.0 14.0 0.00 0.00 0.00 82 1007.5
20260507044504 68 350 7.0 14.0 0.00 0.00 0.00 82 1007.4
20260507044402 68 333 9.0 14.0 0.00 0.00 0.00 82 1007.4
20260507044303 68 314 8.0 14.0 0.00 0.00 0.00 82 1007.5
20260507044204 68 344 8.0 14.0 0.00 0.00 0.00 82 1007.5
20260507044103 68 340 9.0 14.0 0.00 0.00 0.00 82 1007.4
20260507044003 69 336 10.0 14.0 0.00 0.00 0.00 82 1007.4
20260507043902 69 355 10.0 14.0 0.00 0.00 0.00 82 1007.5
20260507043801 69 358 9.0 14.0 0.00 0.00 0.00 82 1007.4
20260507043703 69 321 7.0 12.0 0.00 0.00 0.00 82 1007.3
20260507043603 69 324 7.0 11.0 0.00 0.00 0.00 82 1007.4
20260507043503 69 341 8.0 11.0 0.00 0.00 0.00 82 1007.4
20260507043404 69 341 9.0 11.0 0.00 0.00 0.00 82 1007.3
20260507043303 69 323 7.0 11.0 0.00 0.00 0.00 82 1007.3
20260507043203 69 341 6.0 11.0 0.00 0.00 0.00 82 1007.4
20260507043104 69 324 5.0 11.0 0.00 0.00 0.00 82 1007.3
20260507043002 69 305 5.0 11.0 0.00 0.00 0.00 82 1007.4
20260507042902 69 336 6.0 11.0 0.00 0.00 0.00 82 1007.4
20260507042803 69 343 6.0 11.0 0.00 0.00 0.00 82 1007.5
20260507042703 69 343 6.0 11.0 0.00 0.00 0.00 82 1007.4
20260507042601 69 338 7.0 11.0 0.00 0.00 0.00 82 1007.5
20260507042505 69 333 8.0 11.0 0.00 0.00 0.00 82 1007.4
20260507042404 69 336 8.0 12.0 0.00 0.00 0.00 82 1007.5
20260507042306 69 337 7.0 12.0 0.00 0.00 0.00 82 1007.5
20260507042203 69 330 7.0 12.0 0.00 0.00 0.00 82 1007.4
20260507042101 69 343 7.0 14.0 0.00 0.00 0.00 82 1007.4
20260507042004 69 333 6.0 14.0 0.00 0.00 0.00 82 1007.5
20260507041903 69 317 6.0 14.0 0.00 0.00 0.00 82 1007.5
20260507041802 69 337 7.0 14.0 0.00 0.00 0.00 82 1007.5
20260507041703 69 337 7.0 14.0 0.00 0.00 0.00 82 1007.4
20260507041603 69 348 8.0 14.0 0.00 0.00 0.00 82 1007.5
20260507041504 69 343 8.0 14.0 0.00 0.00 0.00 82 1007.4
20260507041403 69 340 9.0 14.0 0.00 0.00 0.00 82 1007.5
20260507041303 69 354 11.0 14.0 0.00 0.00 0.00 82 1007.4
20260507041203 69 321 11.0 14.0 0.00 0.00 0.00 82 1007.4
20260507041102 69 337 9.0 13.0 0.00 0.00 0.00 82 1007.3
20260507041002 69 319 8.0 12.0 0.00 0.00 0.00 82 1007.3
20260507040901 69 312 7.0 12.0 0.00 0.00 0.00 82 1007.3
20260507040803 69 321 6.0 12.0 0.00 0.00 0.00 82 1007.3
20260507040703 69 334 6.0 12.0 0.00 0.00 0.00 82 1007.3
20260507040602 69 330 6.0 12.0 0.00 0.00 0.00 82 1007.3
20260507040504 69 353 7.0 12.0 0.00 0.00 0.00 82 1007.3
20260507040401 69 348 8.0 12.0 0.00 0.00 0.00 82 1007.4
20260507040303 69 324 9.0 12.0 0.00 0.00 0.00 82 1007.4
20260507040203 69 317 9.0 12.0 0.00 0.00 0.00 82 1007.4
20260507040004 69 7 7.0 12.0 0.00 0.00 0.00 82 1007.2
20260507035902 69 321 9.0 12.0 0.00 0.00 0.00 81 1007.3
20260507035804 69 336 8.0 13.0 0.00 0.00 0.00 82 1007.4
20260507035702 69 354 7.0 13.0 0.00 0.00 0.00 81 1007.4
20260507035603 69 345 8.0 13.0 0.00 0.00 0.00 81 1007.4
20260507035502 69 348 8.0 13.0 0.00 0.00 0.00 81 1007.4
20260507035402 69 333 8.0 13.0 0.00 0.00 0.00 81 1007.3
20260507035301 69 344 9.0 15.0 0.00 0.00 0.00 81 1007.4
20260507035202 69 330 8.0 15.0 0.00 0.00 0.00 81 1007.4
20260507035104 69 314 8.0 15.0 0.00 0.00 0.00 81 1007.3
20260507035003 69 288 10.0 15.0 0.00 0.00 0.00 81 1007.3
20260507034902 69 319 9.0 15.0 0.00 0.00 0.00 81 1007.2
20260507034804 69 293 9.0 15.0 0.00 0.00 0.00 81 1007.1
20260507034701 69 353 9.0 15.0 0.00 0.00 0.00 81 1007.1
20260507034605 69 319 9.0 15.0 0.00 0.00 0.00 81 1007.1
20260507034502 69 341 10.0 15.0 0.00 0.00 0.00 81 1007.1
20260507034404 69 351 12.0 15.0 0.00 0.00 0.00 81 1007.2
20260507034304 69 327 9.0 16.0 0.00 0.00 0.00 81 1007.1
20260507034202 70 336 9.0 16.0 0.00 0.00 0.00 81 1007.2
20260507034104 69 310 10.0 16.0 0.00 0.00 0.00 81 1007.2
20260507034005 70 326 10.0 16.0 0.00 0.00 0.00 81 1007.3
20260507033902 70 324 11.0 16.0 0.00 0.00 0.00 81 1007.3
20260507033803 70 329 11.0 16.0 0.00 0.00 0.00 81 1007.1
20260507033702 70 350 11.0 16.0 0.00 0.00 0.00 80 1007.2
20260507033604 70 323 10.0 16.0 0.00 0.00 0.00 80 1007.1
20260507033502 70 303 10.0 16.0 0.00 0.00 0.00 80 1007.2
20260507033403 70 340 11.0 16.0 0.00 0.00 0.00 80 1007.2
20260507033304 70 340 9.0 16.0 0.00 0.00 0.00 80 1007.1
20260507033203 70 303 9.0 16.0 0.00 0.00 0.00 80 1007.1
20260507033105 70 344 9.0 15.0 0.00 0.00 0.00 80 1007.1
20260507033003 70 300 9.0 15.0 0.00 0.00 0.00 80 1007.1
20260507032903 70 330 10.0 15.0 0.00 0.00 0.00 80 1007.0
20260507032802 70 343 9.0 15.0 0.00 0.00 0.00 80 1007.1
20260507032704 70 341 9.0 15.0 0.00 0.00 0.00 80 1007.1
20260507032602 70 336 8.0 15.0 0.00 0.00 0.00 80 1007.0
20260507032505 70 320 9.0 15.0 0.00 0.00 0.00 80 1007.0
20260507032404 70 329 10.0 15.0 0.00 0.00 0.00 80 1007.0
20260507032305 70 321 10.0 15.0 0.00 0.00 0.00 80 1006.9
20260507032203 70 326 9.0 14.0 0.00 0.00 0.00 80 1006.8
20260507032104 70 298 9.0 15.0 0.00 0.00 0.00 80 1006.9
20260507032002 71 324 10.0 15.0 0.00 0.00 0.00 80 1006.7
20260507031904 71 307 10.0 15.0 0.00 0.00 0.00 80 1006.7
20260507031803 71 307 10.0 15.0 0.00 0.00 0.00 80 1006.8
20260507031704 71 302 9.0 15.0 0.00 0.00 0.00 80 1006.8
20260507031602 71 313 10.0 15.0 0.00 0.00 0.00 81 1006.8
20260507031504 71 313 9.0 15.0 0.00 0.00 0.00 80 1006.8
20260507031404 71 319 9.0 15.0 0.00 0.00 0.00 80 1006.8
20260507031303 71 319 11.0 15.0 0.00 0.00 0.00 80 1006.8
20260507031202 71 333 10.0 15.0 0.00 0.00 0.00 81 1006.7
20260507031103 71 327 10.0 15.0 0.00 0.00 0.00 81 1006.7
20260507031004 71 292 9.0 15.0 0.00 0.00 0.00 81 1006.8
20260507030902 71 313 8.0 14.0 0.00 0.00 0.00 81 1006.7
20260507030803 71 313 9.0 14.0 0.00 0.00 0.00 80 1006.6
20260507030702 71 324 10.0 14.0 0.00 0.00 0.00 80 1006.7
20260507030604 71 0 11.0 14.0 0.00 0.00 0.00 80 1006.6
20260507030504 71 314 10.0 16.0 0.00 0.00 0.00 80 1006.7
20260507030401 71 314 10.0 16.0 0.00 0.00 0.00 80 1006.7
20260507030302 71 307 10.0 16.0 0.00 0.00 0.00 80 1006.7
20260507030203 71 330 9.0 16.0 0.00 0.00 0.00 80 1006.6
20260507030004 71 330 8.0 16.0 0.00 0.00 0.00 80 1006.6
20260507025902 71 330 8.0 16.0 0.00 0.00 0.00 80 1006.5
20260507025803 71 320 10.0 16.0 0.00 0.00 0.00 80 1006.5
20260507025705 71 314 11.0 16.0 0.00 0.00 0.00 80 1006.5
20260507025603 71 327 9.0 16.0 0.00 0.00 0.00 80 1006.3
20260507025504 71 299 8.0 13.0 0.00 0.00 0.00 80 1006.3
20260507025403 71 337 9.0 13.0 0.00 0.00 0.00 80 1006.3
20260507025306 71 330 9.0 14.0 0.00 0.00 0.00 80 1006.2
20260507025203 71 329 9.0 14.0 0.00 0.00 0.00 80 1006.3
20260507025104 71 323 9.0 14.0 0.00 0.00 0.00 80 1006.2
20260507025005 71 334 8.0 14.0 0.00 0.00 0.00 80 1006.2
20260507024903 71 327 9.0 14.0 0.00 0.00 0.00 80 1006.2
20260507024803 71 289 8.0 14.0 0.00 0.00 0.00 80 1006.3
20260507024703 71 317 7.0 14.0 0.00 0.00 0.00 80 1006.2
20260507024603 71 285 8.0 14.0 0.00 0.00 0.00 80 1006.2
20260507024503 71 344 9.0 14.0 0.00 0.00 0.00 80 1006.2
20260507024402 71 314 8.0 14.0 0.00 0.00 0.00 80 1006.2
20260507024303 71 347 7.0 14.0 0.00 0.00 0.00 80 1006.1
20260507024202 71 295 7.0 14.0 0.00 0.00 0.00 80 1006.2
20260507024104 72 302 7.0 14.0 0.00 0.00 0.00 80 1006.1
20260507024002 71 320 7.0 14.0 0.00 0.00 0.00 80 1006.1
20260507023902 72 321 7.0 14.0 0.00 0.00 0.00 80 1006.2
20260507023802 71 336 8.0 14.0 0.00 0.00 0.00 80 1006.2
20260507023703 72 350 9.0 14.0 0.00 0.00 0.00 80 1006.1
20260507023603 72 331 9.0 14.0 0.00 0.00 0.00 80 1006.2
20260507023502 72 345 9.0 14.0 0.00 0.00 0.00 80 1006.1
20260507023403 72 326 10.0 14.0 0.00 0.00 0.00 80 1006.1
20260507023303 72 298 10.0 14.0 0.00 0.00 0.00 80 1006.0
20260507023204 72 334 8.0 14.0 0.00 0.00 0.00 80 1006.0
20260507023102 72 326 8.0 14.0 0.00 0.00 0.00 80 1006.0
20260507023002 72 319 9.0 14.0 0.00 0.00 0.00 80 1005.9
20260507022903 72 293 9.0 14.0 0.00 0.00 0.00 81 1005.9
20260507022803 72 323 9.0 13.0 0.00 0.00 0.00 81 1005.8
20260507022703 72 324 8.0 13.0 0.00 0.00 0.00 81 1005.8
20260507022603 72 320 7.0 13.0 0.00 0.00 0.00 81 1005.8
20260507022504 72 286 7.0 13.0 0.00 0.00 0.00 81 1005.8
20260507022404 72 319 7.0 13.0 0.00 0.00 0.00 81 1005.8
20260507022306 72 314 7.0 13.0 0.00 0.00 0.00 81 1005.8
20260507022204 72 312 8.0 13.0 0.00 0.00 0.00 81 1005.8
20260507022103 72 338 8.0 13.0 0.00 0.00 0.00 81 1005.8
20260507022003 72 313 7.0 13.0 0.00 0.00 0.00 81 1005.8
20260507021904 72 288 7.0 11.0 0.00 0.00 0.00 81 1005.7
20260507021803 72 338 7.0 11.0 0.00 0.00 0.00 81 1005.7
20260507021704 72 337 6.0 11.0 0.00 0.00 0.00 81 1005.6
20260507021604 72 333 7.0 11.0 0.00 0.00 0.00 81 1005.7
20260507021503 72 324 7.0 11.0 0.00 0.00 0.00 81 1005.6
20260507021404 72 321 7.0 11.0 0.00 0.00 0.00 81 1005.5
20260507021302 72 348 6.0 11.0 0.00 0.00 0.00 81 1005.4
20260507021202 72 0 7.0 11.0 0.00 0.00 0.00 81 1005.4
20260507021103 72 329 7.0 11.0 0.00 0.00 0.00 81 1005.3
20260507021002 72 350 8.0 11.0 0.00 0.00 0.00 81 1005.3
20260507020902 72 326 7.0 11.0 0.00 0.00 0.00 81 1005.4
20260507020803 72 341 6.0 11.0 0.00 0.00 0.00 81 1005.4
20260507020704 72 317 5.0 11.0 0.00 0.00 0.00 81 1005.3
20260507020603 72 312 6.0 11.0 0.00 0.00 0.00 81 1005.4
20260507020504 72 323 7.0 11.0 0.00 0.00 0.00 81 1005.4
20260507020403 72 343 7.0 12.0 0.00 0.00 0.00 81 1005.3
20260507020302 72 333 8.0 12.0 0.00 0.00 0.00 81 1005.3
20260507020204 72 350 7.0 12.0 0.00 0.00 0.00 81 1005.3
20260507020104 72 334 6.0 12.0 0.00 0.00 0.00 81 1005.2
20260507020005 72 347 6.0 12.0 0.00 0.00 0.00 81 1005.1
20260507015902 72 313 7.0 12.0 0.00 0.00 0.00 81 1005.1
20260507015803 72 338 7.0 12.0 0.00 0.00 0.00 80 1005.1
20260507015702 72 331 7.0 12.0 0.00 0.00 0.00 80 1005.1
20260507015603 72 331 8.0 12.0 0.00 0.00 0.00 80 1005.1
20260507015503 72 343 7.0 12.0 0.00 0.00 0.00 80 1005.1
20260507015403 72 350 6.0 12.0 0.00 0.00 0.00 80 1005.2
20260507015306 72 331 7.0 13.0 0.00 0.00 0.00 80 1005.2
20260507015203 72 336 8.0 13.0 0.00 0.00 0.00 80 1005.2
20260507015104 73 303 8.0 13.0 0.00 0.00 0.00 80 1005.2
20260507015004 73 323 7.0 15.0 0.00 0.00 0.00 80 1005.2
20260507014902 73 317 6.0 15.0 0.00 0.00 0.00 80 1005.2
20260507014803 73 336 8.0 15.0 0.00 0.00 0.00 80 1005.1
20260507014705 73 323 8.0 15.0 0.00 0.00 0.00 80 1005.1
20260507014603 73 336 8.0 15.0 0.00 0.00 0.00 80 1005.1
20260507014504 73 0 10.0 15.0 0.00 0.00 0.00 80 1005.1
20260507014402 73 341 10.0 15.0 0.00 0.00 0.00 80 1005.1
20260507014304 73 331 10.0 15.0 0.00 0.00 0.00 80 1005.2
20260507014202 73 347 11.0 15.0 0.00 0.00 0.00 80 1005.1
20260507014102 73 345 10.0 15.0 0.00 0.00 0.00 80 1005.1
20260507014002 73 358 9.0 14.0 0.00 0.00 0.00 80 1005.0
20260507013903 73 313 9.0 14.0 0.00 0.00 0.00 80 1005.1
20260507013804 73 336 8.0 14.0 0.00 0.00 0.00 80 1005.2
20260507013703 73 288 8.0 14.0 0.00 0.00 0.00 80 1005.1
20260507013603 73 309 8.0 14.0 0.00 0.00 0.00 80 1005.1
20260507013505 73 327 7.0 14.0 0.00 0.00 0.00 80 1005.0
20260507013402 73 309 7.0 14.0 0.00 0.00 0.00 80 1005.0
20260507013301 73 307 9.0 14.0 0.00 0.00 0.00 80 1005.0
20260507013201 73 331 10.0 14.0 0.00 0.00 0.00 81 1004.9
20260507013102 73 343 10.0 14.0 0.00 0.00 0.00 81 1004.8
20260507013004 73 355 11.0 14.0 0.00 0.00 0.00 81 1004.8
20260507012904 73 336 11.0 14.0 0.00 0.00 0.00 81 1004.8
20260507012803 73 341 9.0 14.0 0.00 0.00 0.00 81 1004.7
20260507012702 73 0 8.0 12.0 0.00 0.00 0.00 81 1004.7
20260507012603 73 333 6.0 12.0 0.00 0.00 0.00 81 1004.8
20260507012503 73 323 8.0 12.0 0.00 0.00 0.00 81 1004.7
20260507012404 73 324 9.0 13.0 0.00 0.00 0.00 81 1004.8
20260507012306 73 350 8.0 13.0 0.00 0.00 0.00 81 1004.7
20260507012203 73 358 7.0 13.0 0.00 0.00 0.00 81 1004.7
20260507012103 73 343 7.0 13.0 0.00 0.00 0.00 81 1004.7
20260507012002 73 336 7.0 13.0 0.00 0.00 0.00 81 1004.7
20260507011903 73 341 7.0 13.0 0.00 0.00 0.00 81 1004.7
20260507011802 74 358 8.0 13.0 0.00 0.00 0.00 81 1004.7
20260507011702 74 350 8.0 13.0 0.00 0.00 0.00 81 1004.7
20260507011604 74 338 9.0 13.0 0.00 0.00 0.00 81 1004.7
20260507011504 74 314 10.0 13.0 0.00 0.00 0.00 81 1004.6
20260507011403 74 341 9.0 12.0 0.00 0.00 0.00 81 1004.6
20260507011303 74 334 8.0 12.0 0.00 0.00 0.00 81 1004.6
20260507011202 74 310 6.0 10.0 0.00 0.00 0.00 81 1004.6
20260507011103 74 0 5.0 10.0 0.00 0.00 0.00 82 1004.6
20260507011003 74 288 5.0 10.0 0.00 0.00 0.00 81 1004.6
20260507010903 74 312 6.0 10.0 0.00 0.00 0.00 82 1004.5
20260507010802 74 0 6.0 10.0 0.00 0.00 0.00 81 1004.5
20260507010703 74 357 7.0 10.0 0.00 0.00 0.00 81 1004.5
20260507010604 74 317 8.0 10.0 0.00 0.00 0.00 81 1004.5
20260507010503 74 313 7.0 10.0 0.00 0.00 0.00 81 1004.5
20260507010403 74 302 6.0 10.0 0.00 0.00 0.00 81 1004.5
20260507010303 74 309 6.0 10.0 0.00 0.00 0.00 81 1004.5
20260507010203 74 289 6.0 10.0 0.00 0.00 0.00 81 1004.5
20260507010104 74 292 6.0 10.0 0.00 0.00 0.00 81 1004.5
20260507010004 74 292 6.0 10.0 0.00 0.00 0.00 81 1004.5
20260507005903 74 310 5.0 9.0 0.00 0.00 0.00 81 1004.4
20260507005802 74 299 4.0 10.0 0.00 0.00 0.00 81 1004.4
20260507005702 74 305 3.0 13.0 0.00 0.00 0.00 81 1004.4
20260507005602 74 317 4.0 13.0 0.00 0.00 0.00 81 1004.3
20260507005504 74 313 4.0 13.0 0.00 0.00 0.00 81 1004.2
20260507005401 74 343 4.0 13.0 0.00 0.00 0.00 81 1004.2
20260507005305 74 330 4.0 14.0 0.00 0.00 0.00 81 1004.2
20260507005203 74 312 4.0 14.0 0.00 0.00 0.00 81 1004.2
20260507005103 74 333 6.0 14.0 0.00 0.00 0.00 81 1004.1
20260507005003 74 309 7.0 14.0 0.00 0.00 0.00 81 1004.2
20260507004903 75 296 8.0 14.0 0.00 0.00 0.00 81 1004.1
20260507004802 75 293 7.0 14.0 0.00 0.00 0.00 81 1004.0
20260507004703 75 307 8.0 15.0 0.00 0.00 0.00 81 1004.0
20260507004603 75 334 9.0 16.0 0.00 0.00 0.00 81 1003.9
20260507004504 75 341 10.0 16.0 0.00 0.00 0.00 81 1003.9
20260507004403 75 334 9.0 16.0 0.00 0.00 0.00 81 1003.9
20260507004257 75 341 8.0 16.0 0.00 0.00 0.00 81 1003.9
20260507004154 75 345 8.0 16.0 0.00 0.00 0.00 81 1003.9
20260507004048 75 310 8.0 16.0 0.00 0.00 0.00 81 1003.9
20260507003948 75 331 9.0 16.0 0.00 0.00 0.00 81 1003.8
20260507003835 75 324 11.0 16.0 0.00 0.00 0.00 81 1003.8
20260507003733 75 300 11.0 17.0 0.00 0.00 0.00 81 1003.7
20260507003630 75 303 7.0 17.0 0.00 0.00 0.00 81 1003.6
20260507003532 75 350 9.0 17.0 0.00 0.00 0.00 81 1003.6
20260507003432 75 348 9.0 18.0 0.00 0.00 0.00 81 1003.6
20260507003331 75 343 8.0 18.0 0.00 0.00 0.00 80 1003.6
20260507003233 75 343 10.0 18.0 0.00 0.00 0.00 80 1003.6
20260507003133 76 331 13.0 18.0 0.00 0.00 0.00 81 1003.7
20260507003032 76 331 13.0 18.0 0.00 0.00 0.00 81 1003.5
20260507002933 76 331 13.0 18.0 0.00 0.00 0.00 81 1003.6
20260507002832 76 331 13.0 18.0 0.00 0.00 0.00 81 1003.6
20260507002731 76 337 12.0 18.0 0.00 0.00 0.00 81 1003.7
20260507002632 76 338 13.0 18.0 0.00 0.00 0.00 81 1003.6
20260507002532 76 348 13.0 18.0 0.00 0.00 0.00 81 1003.6
20260507002431 76 336 12.0 16.0 0.00 0.00 0.00 81 1003.6
20260507002332 76 323 11.0 16.0 0.00 0.00 0.00 81 1003.6
20260507002233 76 313 9.0 16.0 0.00 0.00 0.00 81 1003.6
20260507002132 76 320 10.0 16.0 0.00 0.00 0.00 81 1003.5
20260507002031 76 323 11.0 16.0 0.00 0.00 0.00 81 1003.5
20260507001931 76 317 12.0 16.0 0.00 0.00 0.00 81 1003.6
20260507001832 76 329 11.0 16.0 0.00 0.00 0.00 81 1003.6
20260507001733 76 331 10.0 16.0 0.00 0.00 0.00 81 1003.5
20260507001632 76 316 11.0 16.0 0.00 0.00 0.00 81 1003.4
20260507001531 76 326 12.0 16.0 0.00 0.00 0.00 81 1003.4
20260507001432 77 327 12.0 16.0 0.00 0.00 0.00 81 1003.3
20260507001331 77 330 12.0 16.0 0.00 0.00 0.00 81 1003.4
20260507001231 77 314 11.0 16.0 0.00 0.00 0.00 81 1003.3
20260507001132 77 341 10.0 15.0 0.00 0.00 0.00 81 1003.2
20260507001032 77 343 10.0 15.0 0.00 0.00 0.00 81 1003.3
20260507000933 77 329 9.0 16.0 0.00 0.00 0.00 81 1003.2
20260507000832 77 296 9.0 16.0 0.00 0.00 0.00 81 1003.2
20260507000731 78 327 8.0 18.0 0.00 0.00 0.00 81 1003.1
20260507000633 78 302 10.0 18.0 0.00 0.00 0.00 81 1003.2
20260507000532 78 299 9.0 18.0 0.00 0.00 0.00 81 1003.2
20260507000432 78 300 9.0 18.0 0.00 0.00 0.00 81 1003.1
20260507000331 78 344 10.0 18.0 0.00 0.00 0.00 80 1003.2
20260507000231 78 336 11.0 18.0 0.00 0.00 0.00 81 1003.1
20260507000132 78 347 12.0 18.0 0.00 0.00 0.00 80 1003.2
20260507000032 79 312 12.0 18.0 0.00 0.00 0.00 80 1003.2
20260506235931 79 303 13.0 18.0 0.00 0.00 0.00 80 1003.2
20260506235832 79 290 11.0 18.0 0.00 0.00 0.00 80 1003.3
20260506235731 79 321 9.0 16.0 0.00 0.00 0.00 80 1003.1
20260506235632 80 333 10.0 16.0 0.00 0.00 0.00 79 1003.2
20260506235531 80 310 12.0 16.0 0.00 0.00 0.00 79 1003.1
20260506235432 80 327 11.0 16.0 0.00 0.00 0.00 79 1003.0
20260506235332 80 0 9.0 16.0 0.00 0.00 0.00 79 1003.1
20260506235233 81 309 10.0 16.0 0.00 0.00 0.00 79 1003.1
20260506235130 81 312 11.0 16.0 0.00 0.00 0.00 79 1003.1
20260506235030 82 298 12.0 16.0 0.00 0.00 0.00 78 1003.0
20260506234931 83 300 11.0 15.0 0.00 0.00 0.00 79 1003.0
20260506234831 83 286 11.0 14.0 0.00 0.00 0.00 79 1002.9
20260506234731 83 300 11.0 14.0 0.00 0.00 0.00 79 1002.9
20260506234631 84 290 9.0 14.0 0.00 0.00 0.00 80 1002.8
20260506234530 84 281 7.0 14.0 0.00 0.00 0.00 80 1002.8
20260506234433 84 285 5.0 7.0 0.00 0.00 0.00 80 1002.7
20260506234333 84 257 4.0 7.0 0.00 0.00 0.00 80 1002.7
20260506234231 84 261 4.0 7.0 0.00 0.00 0.00 80 1002.7
20260506234132 84 259 4.0 7.0 0.00 0.00 0.00 80 1002.7
20260506234031 84 261 4.0 7.0 0.00 0.00 0.00 80 1002.7
20260506233931 84 261 4.0 7.0 0.00 0.00 0.00 80 1002.7
20260506233831 84 261 5.0 7.0 0.00 0.00 0.00 80 1002.7
20260506233732 84 262 4.0 7.0 0.00 0.00 0.00 80 1002.7
20260506233632 84 283 5.0 7.0 0.00 0.00 0.00 80 1002.7
20260506233531 84 293 6.0 7.0 0.00 0.00 0.00 80 1002.7
20260506233432 84 286 5.0 7.0 0.00 0.00 0.00 80 1002.6
20260506233331 84 292 5.0 9.0 0.00 0.00 0.00 80 1002.6
20260506233232 84 289 6.0 9.0 0.00 0.00 0.00 80 1002.6
20260506233132 84 290 6.0 9.0 0.00 0.00 0.00 80 1002.7
20260506233032 84 281 6.0 9.0 0.00 0.00 0.00 80 1002.6
20260506232933 84 293 5.0 9.0 0.00 0.00 0.00 80 1002.6
20260506232831 84 293 4.0 9.0 0.00 0.00 0.00 80 1002.6
20260506232722 84 296 4.0 9.0 0.00 0.00 0.00 80 1002.6
20260506232618 84 290 5.0 9.0 0.00 0.00 0.00 80 1002.5
20260506232514 84 288 6.0 9.0 0.00 0.00 0.00 80 1002.6
20260506232413 84 286 5.0 7.0 0.00 0.00 0.00 80 1002.6
20260506232313 84 302 4.0 7.0 0.00 0.00 0.00 79 1002.6
20260506232212 84 298 5.0 7.0 0.00 0.00 0.00 79 1002.7
20260506232110 85 285 4.0 7.0 0.00 0.00 0.00 79 1002.6
20260506232007 85 286 4.0 7.0 0.00 0.00 0.00 79 1002.7
20260506231905 85 296 5.0 7.0 0.00 0.00 0.00 79 1002.7
20260506231805 85 296 5.0 7.0 0.00 0.00 0.00 79 1002.6
20260506231707 85 286 5.0 7.0 0.00 0.00 0.00 78 1002.7
20260506231605 85 289 4.0 6.0 0.00 0.00 0.00 78 1002.7
20260506231506 85 293 4.0 6.0 0.00 0.00 0.00 78 1002.7
20260506231405 85 295 4.0 6.0 0.00 0.00 0.00 78 1002.6
20260506231305 85 290 4.0 6.0 0.00 0.00 0.00 77 1002.6
20260506231207 85 265 2.0 5.0 0.00 0.00 0.00 77 1002.5
20260506231106 85 265 2.0 5.0 0.00 0.00 0.00 77 1002.5
20260506231006 85 265 3.0 5.0 0.00 0.00 0.00 77 1002.5
20260506230906 85 265 3.0 5.0 0.00 0.00 0.00 77 1002.6
20260506230806 85 265 3.0 5.0 0.00 0.00 0.00 77 1002.6
20260506230707 85 265 4.0 5.0 0.00 0.00 0.00 77 1002.6
20260506230607 85 275 4.0 5.0 0.00 0.00 0.00 77 1002.6
20260506230505 85 276 3.0 5.0 0.00 0.00 0.00 77 1002.6
20260506230407 85 272 3.0 5.0 0.00 0.00 0.00 77 1002.5
20260506230305 85 266 4.0 6.0 0.00 0.00 0.00 77 1002.5
20260506230205 85 266 4.0 6.0 0.00 0.00 0.00 77 1002.5
20260506230108 85 271 3.0 6.0 0.00 0.00 0.00 77 1002.5
20260506230006 85 255 2.0 6.0 0.00 0.00 0.00 77 1002.5
20260506225905 85 255 2.0 6.0 0.00 0.00 0.00 77 1002.4
20260506225805 85 255 2.0 6.0 0.00 0.00 0.00 77 1002.5
20260506225705 85 255 3.0 6.0 0.00 0.00 0.00 77 1002.5
20260506225605 85 255 4.0 6.0 0.00 0.00 0.00 77 1002.5
20260506225505 85 257 4.0 6.0 0.00 0.00 0.00 77 1002.6
20260506225405 85 261 3.0 6.0 0.00 0.00 0.00 77 1002.6
20260506225307 85 276 3.0 6.0 0.00 0.00 0.00 77 1002.5
20260506225205 85 279 2.0 6.0 0.00 0.00 0.00 77 1002.5
20260506225105 85 282 2.0 6.0 0.00 0.00 0.00 77 1002.4
20260506225004 85 282 3.0 6.0 0.00 0.00 0.00 77 1002.5
20260506224905 85 282 4.0 6.0 0.00 0.00 0.00 77 1002.5
20260506224807 85 289 4.0 6.0 0.00 0.00 0.00 76 1002.4
20260506224706 85 276 4.0 6.0 0.00 0.00 0.00 77 1002.4
20260506224604 85 279 4.0 5.0 0.00 0.00 0.00 77 1002.5
20260506224504 85 281 3.0 5.0 0.00 0.00 0.00 77 1002.5
20260506224405 85 248 4.0 5.0 0.00 0.00 0.00 77 1002.5
20260506224304 85 248 4.0 5.0 0.00 0.00 0.00 77 1002.5
20260506224207 86 245 3.0 5.0 0.00 0.00 0.00 77 1002.5
20260506224106 85 251 3.0 5.0 0.00 0.00 0.00 77 1002.5
20260506224007 85 251 4.0 5.0 0.00 0.00 0.00 77 1002.5
20260506223907 85 254 4.0 5.0 0.00 0.00 0.00 76 1002.5
20260506223804 85 255 3.0 5.0 0.00 0.00 0.00 76 1002.5
20260506223705 85 254 3.0 5.0 0.00 0.00 0.00 76 1002.5
20260506223604 85 255 4.0 5.0 0.00 0.00 0.00 76 1002.5
20260506223505 85 255 4.0 5.0 0.00 0.00 0.00 76 1002.5
20260506223404 86 255 4.0 5.0 0.00 0.00 0.00 75 1002.4
20260506223305 86 257 4.0 5.0 0.00 0.00 0.00 76 1002.4
20260506223205 86 252 4.0 5.0 0.00 0.00 0.00 76 1002.4
20260506223106 86 244 3.0 4.0 0.00 0.00 0.00 76 1002.5
20260506223005 86 237 3.0 4.0 0.00 0.00 0.00 76 1002.5
20260506222905 86 235 2.0 4.0 0.00 0.00 0.00 76 1002.4
20260506222804 86 226 1.0 4.0 0.00 0.00 0.00 76 1002.4
20260506222704 86 223 1.0 4.0 0.00 0.00 0.00 76 1002.5
20260506222604 86 223 2.0 4.0 0.00 0.00 0.00 75 1002.5
20260506222507 86 221 2.0 4.0 0.00 0.00 0.00 75 1002.4
20260506222405 86 221 2.0 4.0 0.00 0.00 0.00 75 1002.4
20260506222306 86 217 2.0 4.0 0.00 0.00 0.00 75 1002.4
20260506222204 86 216 2.0 3.0 0.00 0.00 0.00 75 1002.5
20260506222104 86 216 2.0 3.0 0.00 0.00 0.00 75 1002.4
20260506222005 86 214 1.0 3.0 0.00 0.00 0.00 75 1002.5
20260506221905 86 214 1.0 3.0 0.00 0.00 0.00 75 1002.4
20260506221805 86 214 1.0 3.0 0.00 0.00 0.00 75 1002.4
20260506221705 86 219 2.0 3.0 0.00 0.00 0.00 75 1002.5
20260506221604 86 219 2.0 3.0 0.00 0.00 0.00 75 1002.4
20260506221504 86 220 2.0 5.0 0.00 0.00 0.00 75 1002.4
20260506221404 86 220 1.0 5.0 0.00 0.00 0.00 74 1002.4
20260506221304 86 220 1.0 5.0 0.00 0.00 0.00 74 1002.5
20260506221204 86 220 2.0 5.0 0.00 0.00 0.00 75 1002.4
20260506221104 86 220 1.0 5.0 0.00 0.00 0.00 76 1002.4
20260506221004 86 221 0.0 5.0 0.00 0.00 0.00 76 1002.4
20260506220904 86 221 1.0 5.0 0.00 0.00 0.00 76 1002.4
20260506220806 86 221 1.0 5.0 0.00 0.00 0.00 76 1002.4
20260506220703 86 221 2.0 5.0 0.00 0.00 0.00 75 1002.3
20260506220606 86 221 3.0 5.0 0.00 0.00 0.00 75 1002.3
20260506220504 86 199 2.0 4.0 0.00 0.00 0.00 75 1002.3
20260506220403 86 183 2.0 3.0 0.00 0.00 0.00 75 1002.3
20260506220303 86 183 2.0 3.0 0.00 0.00 0.00 75 1002.3
20260506220206 86 183 2.0 3.0 0.00 0.00 0.00 75 1002.3
20260506220104 86 186 2.0 3.0 0.00 0.00 0.00 75 1002.4
20260506220004 86 188 2.0 3.0 0.00 0.00 0.00 75 1002.3
20260506215904 86 193 2.0 3.0 0.00 0.00 0.00 75 1002.3
20260506215803 86 188 1.0 3.0 0.00 0.00 0.00 76 1002.3
20260506215704 86 189 2.0 3.0 0.00 0.00 0.00 76 1002.3
20260506215606 86 189 1.0 3.0 0.00 0.00 0.00 76 1002.3
20260506215505 86 162 1.0 4.0 0.00 0.00 0.00 76 1002.4
20260506215404 86 162 1.0 5.0 0.00 0.00 0.00 76 1002.3
20260506215306 86 188 0.0 5.0 0.00 0.00 0.00 75 1002.3
20260506215204 86 188 1.0 5.0 0.00 0.00 0.00 74 1002.3
20260506215104 86 188 1.0 5.0 0.00 0.00 0.00 74 1002.4
20260506215006 86 189 1.0 5.0 0.00 0.00 0.00 75 1002.3
20260506214904 86 189 1.0 5.0 0.00 0.00 0.00 75 1002.4
20260506214804 87 189 2.0 5.0 0.00 0.00 0.00 74 1002.3
20260506214704 87 189 2.0 5.0 0.00 0.00 0.00 74 1002.3
20260506214603 87 189 2.0 5.0 0.00 0.00 0.00 75 1002.3
20260506214504 87 171 2.0 5.0 0.00 0.00 0.00 76 1002.3
20260506214404 86 176 1.0 4.0 0.00 0.00 0.00 75 1002.4
20260506214303 86 176 2.0 4.0 0.00 0.00 0.00 75 1002.4
20260506214203 86 175 2.0 4.0 0.00 0.00 0.00 75 1002.4
20260506214103 85 176 2.0 4.0 0.00 0.00 0.00 76 1002.4
20260506214004 85 173 2.0 4.0 0.00 0.00 0.00 76 1002.4
20260506213903 85 173 2.0 4.0 0.00 0.00 0.00 76 1002.4
20260506213804 85 182 2.0 5.0 0.00 0.00 0.00 77 1002.4
20260506213703 85 182 2.0 5.0 0.00 0.00 0.00 77 1002.4
20260506213603 85 176 1.0 5.0 0.00 0.00 0.00 77 1002.4
20260506213504 85 178 3.0 5.0 0.00 0.00 0.00 77 1002.4
20260506213404 85 142 2.0 5.0 0.00 0.00 0.00 77 1002.4
20260506213303 85 204 2.0 5.0 0.00 0.00 0.00 77 1002.4
20260506213204 85 210 2.0 5.0 0.00 0.00 0.00 77 1002.4
20260506213103 85 210 2.0 5.0 0.00 0.00 0.00 76 1002.4
20260506213004 85 217 2.0 5.0 0.00 0.00 0.00 76 1002.5
20260506212904 85 219 3.0 5.0 0.00 0.00 0.00 76 1002.5
20260506212804 85 200 3.0 4.0 0.00 0.00 0.00 76 1002.5
20260506212703 85 214 2.0 4.0 0.00 0.00 0.00 77 1002.5
20260506212603 85 196 1.0 4.0 0.00 0.00 0.00 77 1002.6
20260506212505 85 195 2.0 4.0 0.00 0.00 0.00 76 1002.4
20260506212403 85 195 2.0 4.0 0.00 0.00 0.00 76 1002.4
20260506212306 85 193 2.0 4.0 0.00 0.00 0.00 76 1002.5
20260506212204 85 193 2.0 4.0 0.00 0.00 0.00 76 1002.5
20260506212103 85 193 2.0 5.0 0.00 0.00 0.00 76 1002.5
20260506212004 85 195 2.0 5.0 0.00 0.00 0.00 76 1002.5
20260506211903 85 202 1.0 5.0 0.00 0.00 0.00 76 1002.5
20260506211804 85 202 1.0 5.0 0.00 0.00 0.00 76 1002.5
20260506211702 85 202 2.0 5.0 0.00 0.00 0.00 76 1002.6
20260506211605 85 197 1.0 5.0 0.00 0.00 0.00 75 1002.5
20260506211505 85 197 2.0 5.0 0.00 0.00 0.00 75 1002.4
20260506211400 86 188 3.0 5.0 0.00 0.00 0.00 76 1002.5
20260506211252 86 178 3.0 5.0 0.00 0.00 0.00 76 1002.5
20260506211151 86 219 2.0 5.0 0.00 0.00 0.00 76 1002.4
20260506211049 86 178 1.0 5.0 0.00 0.00 0.00 75 1002.4
20260506210943 86 178 1.0 5.0 0.00 0.00 0.00 75 1002.3
20260506210834 86 178 2.0 5.0 0.00 0.00 0.00 75 1002.4
20260506210731 86 178 3.0 5.0 0.00 0.00 0.00 76 1002.4
20260506210631 86 165 2.0 5.0 0.00 0.00 0.00 77 1002.4
20260506210530 86 169 3.0 4.0 0.00 0.00 0.00 77 1002.4
20260506210432 86 165 2.0 4.0 0.00 0.00 0.00 77 1002.4
20260506210332 86 219 2.0 4.0 0.00 0.00 0.00 77 1002.4
20260506210231 86 185 3.0 4.0 0.00 0.00 0.00 77 1002.4
20260506210132 86 193 3.0 4.0 0.00 0.00 0.00 77 1002.4
20260506210031 85 214 2.0 4.0 0.00 0.00 0.00 77 1002.4
20260506205933 85 188 2.0 3.0 0.00 0.00 0.00 76 1002.4
20260506205831 85 186 2.0 3.0 0.00 0.00 0.00 77 1002.5
20260506205723 85 193 2.0 3.0 0.00 0.00 0.00 76 1002.5
20260506205617 85 193 2.0 3.0 0.00 0.00 0.00 76 1002.6
20260506205516 85 192 2.0 3.0 0.00 0.00 0.00 76 1002.6
20260506205416 85 161 2.0 3.0 0.00 0.00 0.00 78 1002.5
20260506205307 85 164 2.0 4.0 0.00 0.00 0.00 78 1002.6
20260506205203 85 159 1.0 4.0 0.00 0.00 0.00 78 1002.6
20260506205104 85 157 1.0 4.0 0.00 0.00 0.00 78 1002.5
20260506205003 85 157 1.0 4.0 0.00 0.00 0.00 78 1002.6
20260506204903 84 157 1.0 4.0 0.00 0.00 0.00 78 1002.7
20260506204803 84 164 2.0 4.0 0.00 0.00 0.00 78 1002.6
20260506204702 84 164 2.0 4.0 0.00 0.00 0.00 78 1002.7
20260506204602 84 164 2.0 5.0 0.00 0.00 0.00 78 1002.8
20260506204503 84 162 2.0 6.0 0.00 0.00 0.00 78 1002.8
20260506204403 84 161 3.0 6.0 0.00 0.00 0.00 78 1002.8
20260506204303 84 185 2.0 6.0 0.00 0.00 0.00 78 1002.8
20260506204202 84 149 0.0 6.0 0.00 0.00 0.00 78 1002.8
20260506204102 84 185 1.0 6.0 0.00 0.00 0.00 78 1002.8
20260506204002 84 185 2.0 6.0 0.00 0.00 0.00 77 1002.9
20260506203901 84 175 2.0 6.0 0.00 0.00 0.00 78 1002.8
20260506203756 84 147 3.0 6.0 0.00 0.00 0.00 77 1002.8
20260506203648 85 134 3.0 6.0 0.00 0.00 0.00 77 1002.8
20260506203547 85 173 3.0 6.0 0.00 0.00 0.00 77 1002.9
20260506203445 85 162 3.0 5.0 0.00 0.00 0.00 77 1002.8
20260506203344 85 155 4.0 5.0 0.00 0.00 0.00 77 1002.8
20260506203245 85 140 3.0 5.0 0.00 0.00 0.00 77 1002.8
20260506203143 85 128 3.0 9.0 0.00 0.00 0.00 77 1002.8
20260506203039 85 171 3.0 9.0 0.00 0.00 0.00 77 1002.8
20260506202936 85 102 3.0 9.0 0.00 0.00 0.00 77 1002.8
20260506202833 85 176 3.0 9.0 0.00 0.00 0.00 77 1002.9
20260506202732 85 161 2.0 9.0 0.00 0.00 0.00 77 1002.9
20260506202625 85 168 2.0 9.0 0.00 0.00 0.00 77 1002.9
20260506202521 85 145 2.0 9.0 0.00 0.00 0.00 77 1002.9
20260506202418 85 148 2.0 9.0 0.00 0.00 0.00 77 1002.9
20260506202318 85 144 3.0 9.0 0.00 0.00 0.00 76 1002.9
20260506202203 85 135 3.0 9.0 0.00 0.00 0.00 76 1002.9
20260506202102 85 154 3.0 5.0 0.00 0.00 0.00 76 1003.0
20260506202004 85 147 2.0 4.0 0.00 0.00 0.00 76 1003.0
20260506201903 85 133 2.0 4.0 0.00 0.00 0.00 76 1003.0
20260506201802 85 159 2.0 4.0 0.00 0.00 0.00 76 1002.9
20260506201703 85 157 3.0 4.0 0.00 0.00 0.00 76 1003.0
20260506201602 85 151 2.0 6.0 0.00 0.00 0.00 76 1003.0
20260506201502 85 151 1.0 6.0 0.00 0.00 0.00 76 1003.0
20260506201404 85 151 0.0 6.0 0.00 0.00 0.00 76 1002.9
20260506201303 85 190 0.0 6.0 0.00 0.00 0.00 76 1003.0
20260506201203 85 190 0.0 6.0 0.00 0.00 0.00 76 1002.9
20260506201103 85 190 1.0 6.0 0.00 0.00 0.00 76 1002.9
20260506201004 85 190 1.0 6.0 0.00 0.00 0.00 76 1003.0
20260506200902 85 190 2.0 6.0 0.00 0.00 0.00 76 1003.0
20260506200803 85 190 3.0 6.0 0.00 0.00 0.00 76 1003.0
20260506200702 85 216 2.0 6.0 0.00 0.00 0.00 76 1003.0
20260506200602 85 188 2.0 5.0 0.00 0.00 0.00 76 1003.0
20260506200505 85 188 2.0 5.0 0.00 0.00 0.00 76 1003.0
20260506200402 85 188 2.0 5.0 0.00 0.00 0.00 75 1003.0
20260506200303 85 189 3.0 5.0 0.00 0.00 0.00 75 1003.0
20260506200203 85 224 3.0 5.0 0.00 0.00 0.00 76 1003.0
20260506200004 85 209 4.0 5.0 0.00 0.00 0.00 76 1003.1
20260506195902 85 195 3.0 5.0 0.00 0.00 0.00 76 1003.1
20260506195803 85 228 2.0 5.0 0.00 0.00 0.00 77 1003.1
20260506195703 85 243 2.0 4.0 0.00 0.00 0.00 77 1003.0
20260506195603 85 245 2.0 4.0 0.00 0.00 0.00 76 1003.0
20260506195503 85 182 2.0 4.0 0.00 0.00 0.00 76 1003.0
20260506195402 85 206 3.0 5.0 0.00 0.00 0.00 76 1003.1
20260506195305 85 212 3.0 5.0 0.00 0.00 0.00 76 1003.1
20260506195202 85 173 1.0 5.0 0.00 0.00 0.00 77 1003.1
20260506195103 85 169 1.0 5.0 0.00 0.00 0.00 77 1003.1
20260506195004 85 168 1.0 5.0 0.00 0.00 0.00 77 1003.2
20260506194902 85 169 2.0 5.0 0.00 0.00 0.00 77 1003.1
20260506194802 85 169 2.0 5.0 0.00 0.00 0.00 77 1003.0
20260506194702 85 172 3.0 5.0 0.00 0.00 0.00 77 1003.1
20260506194602 84 152 3.0 5.0 0.00 0.00 0.00 77 1003.1
20260506194503 84 155 3.0 5.0 0.00 0.00 0.00 77 1003.1
20260506194401 84 159 2.0 4.0 0.00 0.00 0.00 78 1003.1
20260506194303 84 168 2.0 5.0 0.00 0.00 0.00 78 1003.2
20260506194203 84 169 2.0 5.0 0.00 0.00 0.00 78 1003.1
20260506194103 84 157 2.0 5.0 0.00 0.00 0.00 78 1003.2
20260506194002 84 155 2.0 5.0 0.00 0.00 0.00 77 1003.2
20260506193901 84 145 2.0 5.0 0.00 0.00 0.00 77 1003.2
20260506193804 84 145 3.0 5.0 0.00 0.00 0.00 77 1003.2
20260506193702 85 142 3.0 5.0 0.00 0.00 0.00 78 1003.2
20260506193603 85 147 2.0 5.0 0.00 0.00 0.00 78 1003.2
20260506193502 85 133 3.0 5.0 0.00 0.00 0.00 79 1003.2
20260506193402 85 109 2.0 5.0 0.00 0.00 0.00 79 1003.2
20260506193302 84 110 1.0 4.0 0.00 0.00 0.00 79 1003.2
20260506193203 84 110 2.0 4.0 0.00 0.00 0.00 79 1003.2
20260506193102 84 104 2.0 4.0 0.00 0.00 0.00 79 1003.2
20260506193002 84 100 2.0 4.0 0.00 0.00 0.00 79 1003.2
20260506192902 84 128 1.0 4.0 0.00 0.00 0.00 79 1003.2
20260506192801 84 128 1.0 4.0 0.00 0.00 0.00 79 1003.2
20260506192703 83 128 1.0 5.0 0.00 0.00 0.00 79 1003.2
20260506192602 83 127 1.0 5.0 0.00 0.00 0.00 80 1003.3
20260506192503 83 127 2.0 5.0 0.00 0.00 0.00 80 1003.3
20260506192402 83 127 1.0 5.0 0.00 0.00 0.00 81 1003.3
20260506192305 83 127 1.0 5.0 0.00 0.00 0.00 81 1003.3
20260506192202 83 127 2.0 5.0 0.00 0.00 0.00 81 1003.3
20260506192103 83 125 2.0 5.0 0.00 0.00 0.00 81 1003.3
20260506192002 83 125 3.0 5.0 0.00 0.00 0.00 81 1003.4
20260506191902 83 125 4.0 5.0 0.00 0.00 0.00 81 1003.4
20260506191802 83 121 4.0 5.0 0.00 0.00 0.00 81 1003.4
20260506191703 83 133 3.0 5.0 0.00 0.00 0.00 82 1003.4
20260506191602 83 137 2.0 5.0 0.00 0.00 0.00 81 1003.5
20260506191502 83 137 3.0 5.0 0.00 0.00 0.00 81 1003.5
20260506191402 83 140 3.0 5.0 0.00 0.00 0.00 80 1003.5
20260506191302 83 148 3.0 5.0 0.00 0.00 0.00 80 1003.5
20260506191201 83 151 4.0 5.0 0.00 0.00 0.00 80 1003.5
20260506191102 83 161 3.0 5.0 0.00 0.00 0.00 79 1003.5
20260506191003 83 161 3.0 5.0 0.00 0.00 0.00 79 1003.5
20260506190904 83 158 3.0 5.0 0.00 0.00 0.00 79 1003.6
20260506190802 84 157 2.0 5.0 0.00 0.00 0.00 79 1003.6
20260506190704 84 138 3.0 5.0 0.00 0.00 0.00 78 1003.6
20260506190602 84 134 4.0 6.0 0.00 0.00 0.00 77 1003.6
20260506190502 84 180 3.0 6.0 0.00 0.00 0.00 77 1003.6
20260506190404 84 166 3.0 7.0 0.00 0.00 0.00 77 1003.6
20260506190302 85 135 4.0 7.0 0.00 0.00 0.00 77 1003.6
20260506190203 85 124 4.0 7.0 0.00 0.00 0.00 77 1003.6
20260506190002 85 120 4.0 7.0 0.00 0.00 0.00 77 1003.5
20260506185902 85 176 4.0 10.0 0.00 0.00 0.00 76 1003.6
20260506185802 85 155 4.0 10.0 0.00 0.00 0.00 77 1003.6
20260506185704 85 162 4.0 10.0 0.00 0.00 0.00 76 1003.6
20260506185602 85 114 6.0 10.0 0.00 0.00 0.00 76 1003.6
20260506185502 85 114 6.0 10.0 0.00 0.00 0.00 76 1003.5
20260506185404 85 104 4.0 10.0 0.00 0.00 0.00 78 1003.6
20260506185306 85 138 2.0 10.0 0.00 0.00 0.00 78 1003.6
20260506185203 85 128 3.0 10.0 0.00 0.00 0.00 78 1003.7
20260506185103 85 127 6.0 10.0 0.00 0.00 0.00 77 1003.7
20260506185002 85 109 7.0 10.0 0.00 0.00 0.00 77 1003.6
20260506184902 84 103 4.0 9.0 0.00 0.00 0.00 77 1003.6
20260506184802 84 120 3.0 5.0 0.00 0.00 0.00 78 1003.6
20260506184703 84 123 3.0 5.0 0.00 0.00 0.00 78 1003.6
20260506184603 84 123 2.0 5.0 0.00 0.00 0.00 78 1003.7
20260506184502 84 138 0.0 5.0 0.00 0.00 0.00 78 1003.7
20260506184402 84 140 1.0 6.0 0.00 0.00 0.00 79 1003.7
20260506184302 84 135 2.0 6.0 0.00 0.00 0.00 80 1003.7
20260506184203 84 135 2.0 6.0 0.00 0.00 0.00 80 1003.8
20260506184101 84 183 1.0 6.0 0.00 0.00 0.00 79 1003.8
20260506184004 83 185 2.0 6.0 0.00 0.00 0.00 79 1003.8
20260506183902 83 185 2.0 6.0 0.00 0.00 0.00 79 1003.8
20260506183803 83 192 3.0 6.0 0.00 0.00 0.00 79 1003.8
20260506183703 83 196 3.0 6.0 0.00 0.00 0.00 79 1003.8
20260506183604 83 106 4.0 6.0 0.00 0.00 0.00 79 1003.8
20260506183503 83 106 4.0 6.0 0.00 0.00 0.00 80 1003.7
20260506183402 83 110 4.0 5.0 0.00 0.00 0.00 80 1003.8
20260506183303 83 110 3.0 5.0 0.00 0.00 0.00 81 1003.8
20260506183203 83 124 2.0 4.0 0.00 0.00 0.00 80 1003.8
20260506183104 83 123 2.0 4.0 0.00 0.00 0.00 80 1003.8
20260506183002 83 123 2.0 4.0 0.00 0.00 0.00 80 1003.8
20260506182904 83 123 2.0 4.0 0.00 0.00 0.00 81 1003.9
20260506182802 83 123 0.0 4.0 0.00 0.00 0.00 81 1003.9
20260506182703 83 117 1.0 4.0 0.00 0.00 0.00 81 1003.9
20260506182603 83 117 2.0 4.0 0.00 0.00 0.00 81 1003.9
20260506182502 82 117 1.0 4.0 0.00 0.00 0.00 81 1003.9
20260506182402 82 117 1.0 4.0 0.00 0.00 0.00 81 1004.0
20260506182306 82 117 2.0 4.0 0.00 0.00 0.00 81 1004.0
20260506182202 82 117 2.0 4.0 0.00 0.00 0.00 81 1004.0
20260506182103 82 117 3.0 4.0 0.00 0.00 0.00 82 1004.1
20260506182001 82 117 2.0 4.0 0.00 0.00 0.00 82 1004.1
20260506181902 82 118 2.0 4.0 0.00 0.00 0.00 82 1004.1
20260506181802 82 114 2.0 4.0 0.00 0.00 0.00 82 1004.1
20260506181702 82 113 2.0 4.0 0.00 0.00 0.00 82 1004.1
20260506181604 82 110 2.0 4.0 0.00 0.00 0.00 81 1004.1
20260506181503 82 110 3.0 4.0 0.00 0.00 0.00 81 1004.2
20260506181403 82 110 3.0 4.0 0.00 0.00 0.00 81 1004.2
20260506181303 82 109 3.0 4.0 0.00 0.00 0.00 82 1004.2
20260506181202 82 110 1.0 5.0 0.00 0.00 0.00 82 1004.3
20260506181103 82 110 1.0 6.0 0.00 0.00 0.00 82 1004.3
20260506181003 82 110 2.0 6.0 0.00 0.00 0.00 82 1004.3
20260506180901 82 110 1.0 6.0 0.00 0.00 0.00 82 1004.3
20260506180802 82 110 1.0 6.0 0.00 0.00 0.00 82 1004.3
20260506180702 82 110 1.0 6.0 0.00 0.00 0.00 82 1004.4
20260506180603 82 110 1.0 6.0 0.00 0.00 0.00 82 1004.4
20260506180503 82 107 1.0 6.0 0.00 0.00 0.00 82 1004.4
20260506180402 82 107 2.0 6.0 0.00 0.00 0.00 82 1004.3
20260506180302 82 107 2.0 6.0 0.00 0.00 0.00 82 1004.4
20260506180203 82 106 1.0 6.0 0.00 0.00 0.00 82 1004.4
20260506180103 82 165 1.0 4.0 0.00 0.00 0.00 81 1004.5
20260506180003 82 165 2.0 4.0 0.00 0.00 0.00 81 1004.5
20260506175901 82 171 1.0 4.0 0.00 0.00 0.00 81 1004.5
20260506175803 82 172 1.0 3.0 0.00 0.00 0.00 81 1004.6
20260506175702 82 172 0.0 2.0 0.00 0.00 0.00 82 1004.6
20260506175602 82 172 1.0 2.0 0.00 0.00 0.00 82 1004.6
20260506175504 82 172 1.0 2.0 0.00 0.00 0.00 82 1004.7
20260506175402 82 172 2.0 2.0 0.00 0.00 0.00 82 1004.6
20260506175306 82 173 1.0 2.0 0.00 0.00 0.00 82 1004.7
20260506175204 82 176 0.0 2.0 0.00 0.00 0.00 82 1004.7
20260506175101 82 176 0.0 2.0 0.00 0.00 0.00 82 1004.7
20260506175002 82 176 0.0 2.0 0.00 0.00 0.00 82 1004.8
20260506174903 82 176 0.0 2.0 0.00 0.00 0.00 82 1004.7
20260506174802 82 176 1.0 2.0 0.00 0.00 0.00 82 1004.8
20260506174703 82 176 1.0 2.0 0.00 0.00 0.00 82 1004.7
20260506174601 82 175 1.0 2.0 0.00 0.00 0.00 82 1004.7
20260506174503 82 175 1.0 1.0 0.00 0.00 0.00 83 1004.8
20260506174404 0 0.0 0.0 0.00 0.00 0.00 1004.7
20260506174304 0 0.0 0.0 0.00 0.00 0.00 1004.7
20260506174203 82 178 1.0 2.0 0.00 0.00 0.00 83 1004.8
20260506174105 82 178 1.0 2.0 0.00 0.00 0.00 83 1004.9
20260506174003 82 178 1.0 2.0 0.00 0.00 0.00 83 1004.9
20260506173904 82 178 1.0 2.0 0.00 0.00 0.00 83 1004.9
20260506173803 82 178 1.0 4.0 0.00 0.00 0.00 83 1004.9
20260506173704 82 178 1.0 4.0 0.00 0.00 0.00 83 1004.9
20260506173604 82 178 1.0 4.0 0.00 0.00 0.00 83 1004.9
20260506173503 82 178 1.0 4.0 0.00 0.00 0.00 83 1004.9
20260506173403 82 178 1.0 4.0 0.00 0.00 0.00 83 1005.0
20260506173303 82 178 1.0 4.0 0.00 0.00 0.00 83 1005.0
20260506173203 82 178 0.0 4.0 0.00 0.00 0.00 82 1005.0
20260506173104 81 178 0.0 4.0 0.00 0.00 0.00 83 1005.1
20260506173003 81 178 1.0 4.0 0.00 0.00 0.00 83 1005.1
20260506172901 81 178 2.0 4.0 0.00 0.00 0.00 83 1005.2
20260506172803 81 227 2.0 3.0 0.00 0.00 0.00 83 1005.2
20260506172704 81 164 2.0 3.0 0.00 0.00 0.00 83 1005.2
20260506172603 81 157 2.0 3.0 0.00 0.00 0.00 83 1005.2
20260506172502 81 155 2.0 3.0 0.00 0.00 0.00 83 1005.1
20260506172403 81 149 0.0 2.0 0.00 0.00 0.00 84 1005.1
20260506172306 81 149 0.0 3.0 0.00 0.00 0.00 84 1005.2
20260506172202 81 148 1.0 3.0 0.00 0.00 0.00 84 1005.2
20260506172103 81 148 0.0 3.0 0.00 0.00 0.00 84 1005.2
20260506172003 81 148 0.0 4.0 0.00 0.00 0.00 84 1005.2
20260506171901 81 148 0.0 4.0 0.00 0.00 0.00 84 1005.2
20260506171803 81 148 0.0 4.0 0.00 0.00 0.00 84 1005.2
20260506171703 81 148 0.0 4.0 0.00 0.00 0.00 84 1005.2
20260506171604 81 148 1.0 4.0 0.00 0.00 0.00 84 1005.2
20260506171504 81 148 1.0 4.0 0.00 0.00 0.00 83 1005.2
20260506171403 81 148 1.0 4.0 0.00 0.00 0.00 83 1005.2
20260506171303 81 148 2.0 4.0 0.00 0.00 0.00 84 1005.1
20260506171204 81 145 2.0 4.0 0.00 0.00 0.00 84 1005.2
20260506171104 81 148 2.0 4.0 0.00 0.00 0.00 84 1005.2
20260506171003 81 131 2.0 6.0 0.00 0.00 0.00 84 1005.2
20260506170902 80 131 3.0 6.0 0.00 0.00 0.00 84 1005.2
20260506170802 80 131 2.0 6.0 0.00 0.00 0.00 84 1005.2
20260506170702 80 131 1.0 6.0 0.00 0.00 0.00 84 1005.2
20260506170604 80 130 2.0 6.0 0.00 0.00 0.00 85 1005.1
20260506170503 80 125 2.0 7.0 0.00 0.00 0.00 85 1005.2
20260506170401 80 125 2.0 7.0 0.00 0.00 0.00 85 1005.2
20260506170301 80 124 3.0 7.0 0.00 0.00 0.00 84 1005.2
20260506170202 80 127 4.0 7.0 0.00 0.00 0.00 84 1005.2
20260506170104 80 123 4.0 7.0 0.00 0.00 0.00 85 1005.1
20260506170003 80 106 3.0 7.0 0.00 0.00 0.00 84 1005.1
20260506165902 80 110 3.0 7.0 0.00 0.00 0.00 85 1005.1
20260506165803 80 118 3.0 7.0 0.00 0.00 0.00 85 1005.1
20260506165703 80 104 3.0 7.0 0.00 0.00 0.00 85 1005.1
20260506165602 80 103 3.0 7.0 0.00 0.00 0.00 85 1005.1
20260506165504 80 138 4.0 6.0 0.00 0.00 0.00 85 1005.1
20260506165402 80 118 4.0 9.0 0.00 0.00 0.00 85 1005.1
20260506165305 80 123 4.0 9.0 0.00 0.00 0.00 85 1005.1
20260506165203 80 114 5.0 9.0 0.00 0.00 0.00 85 1005.1
20260506165102 80 128 5.0 9.0 0.00 0.00 0.00 85 1005.1
20260506165004 80 107 4.0 9.0 0.00 0.00 0.00 85 1005.2
20260506164904 80 145 4.0 9.0 0.00 0.00 0.00 84 1005.2
20260506164804 80 116 4.0 9.0 0.00 0.00 0.00 84 1005.2
20260506164703 80 120 4.0 9.0 0.00 0.00 0.00 84 1005.1
20260506164601 80 118 5.0 9.0 0.00 0.00 0.00 84 1005.1
20260506164504 80 104 5.0 9.0 0.00 0.00 0.00 84 1005.0
20260506164403 80 109 4.0 5.0 0.00 0.00 0.00 84 1005.1
20260506164303 80 120 4.0 7.0 0.00 0.00 0.00 84 1005.1
20260506164203 80 121 3.0 7.0 0.00 0.00 0.00 84 1005.2
20260506164103 80 125 2.0 7.0 0.00 0.00 0.00 84 1005.2
20260506164003 80 128 2.0 7.0 0.00 0.00 0.00 83 1005.2
20260506163904 80 128 3.0 7.0 0.00 0.00 0.00 83 1005.2
20260506163803 80 127 3.0 7.0 0.00 0.00 0.00 83 1005.2
20260506163704 80 113 4.0 7.0 0.00 0.00 0.00 83 1005.1
20260506163603 80 148 4.0 7.0 0.00 0.00 0.00 83 1005.1
20260506163504 81 121 4.0 7.0 0.00 0.00 0.00 83 1005.1
20260506163403 81 103 4.0 7.0 0.00 0.00 0.00 83 1005.1
20260506163303 81 111 3.0 7.0 0.00 0.00 0.00 83 1005.1
20260506163203 81 128 3.0 7.0 0.00 0.00 0.00 82 1005.0
20260506163104 81 148 3.0 7.0 0.00 0.00 0.00 82 1005.1
20260506163003 81 131 2.0 7.0 0.00 0.00 0.00 82 1005.1
20260506162902 81 128 5.0 7.0 0.00 0.00 0.00 82 1005.0
20260506162804 81 103 6.0 7.0 0.00 0.00 0.00 82 1005.0
20260506162702 81 107 5.0 7.0 0.00 0.00 0.00 82 1005.0
20260506162603 81 107 3.0 7.0 0.00 0.00 0.00 82 1005.1
20260506162503 81 147 2.0 7.0 0.00 0.00 0.00 82 1005.2
20260506162402 81 148 2.0 7.0 0.00 0.00 0.00 82 1005.1
20260506162302 81 140 2.0 7.0 0.00 0.00 0.00 82 1005.1
20260506162201 81 128 2.0 7.0 0.00 0.00 0.00 82 1005.0
20260506162103 81 113 2.0 7.0 0.00 0.00 0.00 82 1005.0
20260506162004 81 113 3.0 7.0 0.00 0.00 0.00 82 1004.9
20260506161904 81 102 5.0 7.0 0.00 0.00 0.00 82 1005.0
20260506161803 81 102 5.0 7.0 0.00 0.00 0.00 82 1005.0
20260506161703 81 109 5.0 7.0 0.00 0.00 0.00 82 1005.0
20260506161603 81 130 4.0 5.0 0.00 0.00 0.00 82 1004.9
20260506161503 81 124 4.0 5.0 0.00 0.00 0.00 82 1004.8
20260506161403 81 117 2.0 6.0 0.00 0.00 0.00 82 1004.8
20260506161304 81 166 2.0 6.0 0.00 0.00 0.00 82 1004.7
20260506161202 81 166 2.0 6.0 0.00 0.00 0.00 82 1004.6
20260506161104 81 151 2.0 6.0 0.00 0.00 0.00 82 1004.6
20260506161002 81 152 3.0 6.0 0.00 0.00 0.00 82 1004.6
20260506160903 81 142 4.0 6.0 0.00 0.00 0.00 82 1004.6
20260506160803 81 123 3.0 6.0 0.00 0.00 0.00 83 1004.6
20260506160704 81 141 3.0 6.0 0.00 0.00 0.00 83 1004.6
20260506160603 81 142 4.0 6.0 0.00 0.00 0.00 83 1004.5
20260506160504 81 140 4.0 6.0 0.00 0.00 0.00 83 1004.5
20260506160403 81 135 4.0 5.0 0.00 0.00 0.00 83 1004.6
20260506160302 81 141 3.0 6.0 0.00 0.00 0.00 82 1004.6
20260506160204 81 120 4.0 6.0 0.00 0.00 0.00 82 1004.6
20260506160004 81 130 4.0 6.0 0.00 0.00 0.00 83 1004.7
20260506155903 81 171 4.0 6.0 0.00 0.00 0.00 83 1004.6
20260506155802 81 128 4.0 6.0 0.00 0.00 0.00 83 1004.7
20260506155704 80 116 3.0 6.0 0.00 0.00 0.00 83 1004.6
20260506155603 80 109 3.0 6.0 0.00 0.00 0.00 83 1004.6
20260506155503 80 109 4.0 6.0 0.00 0.00 0.00 83 1004.6
20260506155403 80 109 3.0 6.0 0.00 0.00 0.00 83 1004.6
20260506155306 80 107 2.0 5.0 0.00 0.00 0.00 84 1004.6
20260506155202 80 145 1.0 5.0 0.00 0.00 0.00 84 1004.6
20260506155102 80 145 1.0 5.0 0.00 0.00 0.00 84 1004.6
20260506155004 80 145 0.0 5.0 0.00 0.00 0.00 84 1004.7
20260506154904 80 125 1.0 5.0 0.00 0.00 0.00 84 1004.7
20260506154803 80 125 2.0 5.0 0.00 0.00 0.00 84 1004.7
20260506154702 80 127 3.0 5.0 0.00 0.00 0.00 84 1004.7
20260506154602 80 128 3.0 5.0 0.00 0.00 0.00 84 1004.7
20260506154505 80 131 3.0 5.0 0.00 0.00 0.00 84 1004.7
20260506154404 80 140 2.0 5.0 0.00 0.00 0.00 84 1004.7
20260506154302 80 145 2.0 5.0 0.00 0.00 0.00 84 1004.6
20260506154203 80 144 3.0 5.0 0.00 0.00 0.00 84 1004.6
20260506154101 80 140 3.0 5.0 0.00 0.00 0.00 84 1004.7
20260506154003 80 125 4.0 5.0 0.00 0.00 0.00 84 1004.6
20260506153903 80 127 2.0 5.0 0.00 0.00 0.00 84 1004.7
20260506153802 80 137 2.0 4.0 0.00 0.00 0.00 84 1004.7
20260506153703 80 148 0.0 4.0 0.00 0.00 0.00 84 1004.7
20260506153602 80 151 0.0 4.0 0.00 0.00 0.00 84 1004.6
20260506153504 80 151 1.0 4.0 0.00 0.00 0.00 84 1004.6
20260506153401 80 149 1.0 4.0 0.00 0.00 0.00 84 1004.6
20260506153304 80 151 1.0 4.0 0.00 0.00 0.00 84 1004.6
20260506153202 80 151 2.0 4.0 0.00 0.00 0.00 84 1004.6
20260506153103 80 149 2.0 4.0 0.00 0.00 0.00 84 1004.6
20260506153004 80 130 2.0 4.0 0.00 0.00 0.00 84 1004.5
20260506152903 80 130 2.0 4.0 0.00 0.00 0.00 84 1004.6
20260506152803 80 130 1.0 6.0 0.00 0.00 0.00 84 1004.5
20260506152703 80 130 2.0 6.0 0.00 0.00 0.00 85 1004.5
20260506152604 80 142 2.0 6.0 0.00 0.00 0.00 85 1004.6
20260506152503 80 144 2.0 6.0 0.00 0.00 0.00 85 1004.6
20260506152403 80 144 1.0 6.0 0.00 0.00 0.00 85 1004.6
20260506152305 80 144 1.0 6.0 0.00 0.00 0.00 85 1004.5
20260506152203 80 144 3.0 6.0 0.00 0.00 0.00 85 1004.5
20260506152103 80 144 3.0 6.0 0.00 0.00 0.00 85 1004.4
20260506152005 80 142 4.0 6.0 0.00 0.00 0.00 85 1004.3
20260506151904 80 116 4.0 6.0 0.00 0.00 0.00 85 1004.4
20260506151803 80 103 4.0 6.0 0.00 0.00 0.00 85 1004.5
20260506151704 80 107 3.0 5.0 0.00 0.00 0.00 85 1004.5
20260506151603 80 131 2.0 5.0 0.00 0.00 0.00 85 1004.5
20260506151504 80 135 3.0 6.0 0.00 0.00 0.00 85 1004.5
20260506151402 80 124 4.0 6.0 0.00 0.00 0.00 85 1004.5
20260506151303 80 128 2.0 6.0 0.00 0.00 0.00 85 1004.4
20260506151202 80 148 2.0 6.0 0.00 0.00 0.00 85 1004.4
20260506151102 80 148 2.0 6.0 0.00 0.00 0.00 85 1004.3
20260506151004 80 158 1.0 6.0 0.00 0.00 0.00 85 1004.2
20260506150904 79 145 2.0 6.0 0.00 0.00 0.00 85 1004.2
20260506150802 80 144 3.0 6.0 0.00 0.00 0.00 85 1004.2
20260506150702 79 157 3.0 6.0 0.00 0.00 0.00 85 1004.3
20260506150602 79 152 4.0 6.0 0.00 0.00 0.00 85 1004.2
20260506150503 79 121 4.0 6.0 0.00 0.00 0.00 85 1004.2
20260506150404 79 110 4.0 6.0 0.00 0.00 0.00 85 1004.2
20260506150305 79 127 3.0 6.0 0.00 0.00 0.00 85 1004.1
20260506150203 80 161 2.0 6.0 0.00 0.00 0.00 85 1004.2
20260506150004 80 151 1.0 6.0 0.00 0.00 0.00 85 1004.2
20260506145904 80 141 1.0 6.0 0.00 0.00 0.00 86 1004.2
20260506145803 80 141 2.0 6.0 0.00 0.00 0.00 86 1004.1
20260506145703 80 128 4.0 6.0 0.00 0.00 0.00 86 1004.1
20260506145602 80 111 3.0 7.0 0.00 0.00 0.00 86 1004.1
20260506145503 79 130 2.0 7.0 0.00 0.00 0.00 86 1004.1
20260506145404 79 161 2.0 9.0 0.00 0.00 0.00 86 1004.0
20260506145305 79 142 1.0 9.0 0.00 0.00 0.00 86 1004.1
20260506145202 79 165 3.0 9.0 0.00 0.00 0.00 86 1004.1
20260506145103 79 151 2.0 9.0 0.00 0.00 0.00 87 1004.1
20260506145002 79 117 1.0 9.0 0.00 0.00 0.00 86 1004.2
20260506144903 79 116 3.0 9.0 0.00 0.00 0.00 86 1004.1
20260506144803 79 113 6.0 9.0 0.00 0.00 0.00 86 1004.1
20260506144703 79 102 6.0 9.0 0.00 0.00 0.00 86 1004.1
20260506144603 79 106 7.0 9.0 0.00 0.00 0.00 86 1004.0
20260506144504 79 107 5.0 9.0 0.00 0.00 0.00 87 1004.0
20260506144404 79 104 4.0 9.0 0.00 0.00 0.00 87 1004.0
20260506144304 79 104 3.0 9.0 0.00 0.00 0.00 87 1003.9
20260506144202 79 100 3.0 9.0 0.00 0.00 0.00 87 1004.0
20260506144103 79 135 4.0 11.0 0.00 0.00 0.00 87 1004.0
20260506144003 79 137 5.0 11.0 0.00 0.00 0.00 87 1003.9
20260506143905 79 92 4.0 11.0 0.00 0.00 0.00 87 1003.9
20260506143803 79 116 4.0 11.0 0.00 0.00 0.00 87 1003.9
20260506143703 79 127 3.0 11.0 0.00 0.00 0.00 87 1003.8
20260506143602 79 127 4.0 11.0 0.00 0.00 0.00 88 1003.8
20260506143506 79 148 5.0 11.0 0.00 0.00 0.00 88 1003.8
20260506143404 79 140 4.0 11.0 0.00 0.00 0.00 87 1003.7
20260506143303 79 134 5.0 11.0 0.00 0.00 0.00 87 1003.7
20260506143202 78 113 7.0 11.0 0.00 0.00 0.00 87 1003.7
20260506143103 78 99 7.0 10.0 0.00 0.00 0.00 87 1003.6
20260506143005 78 106 7.0 10.0 0.00 0.00 0.00 88 1003.6
20260506142902 78 106 7.0 10.0 0.00 0.00 0.00 88 1003.6
20260506142802 78 103 7.0 10.0 0.00 0.00 0.00 88 1003.6
20260506142704 78 104 6.0 9.0 0.00 0.00 0.00 88 1003.5
20260506142603 78 110 6.0 11.0 0.00 0.00 0.00 88 1003.6
20260506142504 78 86 6.0 11.0 0.00 0.00 0.00 88 1003.6
20260506142402 78 116 6.0 11.0 0.00 0.00 0.00 88 1003.5
20260506142302 78 102 6.0 11.0 0.00 0.00 0.00 88 1003.6
20260506142203 78 107 5.0 11.0 0.00 0.00 0.00 88 1003.6
20260506142102 78 106 5.0 11.0 0.00 0.00 0.00 88 1003.6
20260506142004 78 111 6.0 11.0 0.00 0.00 0.00 88 1003.6
20260506141903 78 106 6.0 11.0 0.00 0.00 0.00 88 1003.6
20260506141802 78 111 6.0 11.0 0.00 0.00 0.00 88 1003.7
20260506141704 78 97 7.0 11.0 0.00 0.00 0.00 88 1003.6
20260506141602 78 109 6.0 10.0 0.00 0.00 0.00 88 1003.6
20260506141503 78 117 5.0 10.0 0.00 0.00 0.00 88 1003.7
20260506141403 78 111 5.0 9.0 0.00 0.00 0.00 88 1003.6
20260506141304 78 149 5.0 9.0 0.00 0.00 0.00 88 1003.7
20260506141202 78 106 4.0 7.0 0.00 0.00 0.00 88 1003.7
20260506141102 78 158 4.0 7.0 0.00 0.00 0.00 89 1003.8
20260506141003 78 117 4.0 7.0 0.00 0.00 0.00 89 1003.8
20260506140904 78 140 2.0 7.0 0.00 0.00 0.00 89 1003.8
20260506140803 78 124 1.0 7.0 0.00 0.00 0.00 89 1003.8
20260506140701 78 124 2.0 7.0 0.00 0.00 0.00 89 1003.8
20260506140604 78 123 4.0 7.0 0.00 0.00 0.00 89 1003.8
20260506140502 78 118 4.0 7.0 0.00 0.00 0.00 89 1003.8
20260506140403 78 111 4.0 7.0 0.00 0.00 0.00 89 1003.8
20260506140301 78 109 5.0 7.0 0.00 0.00 0.00 89 1003.8
20260506140154 78 104 4.0 7.0 0.00 0.00 0.00 89 1003.8
20260506140052 78 103 3.0 7.0 0.00 0.00 0.00 89 1003.8
20260506135951 78 103 4.0 7.0 0.00 0.00 0.00 89 1003.8
20260506135851 78 99 4.0 7.0 0.00 0.00 0.00 89 1003.9
20260506135752 78 120 5.0 7.0 0.00 0.00 0.00 90 1003.9
20260506135650 78 113 4.0 7.0 0.00 0.00 0.00 90 1003.9
20260506135551 78 96 2.0 6.0 0.00 0.00 0.00 90 1003.9
20260506135449 78 173 2.0 6.0 0.00 0.00 0.00 90 1003.9
20260506135350 78 118 1.0 6.0 0.00 0.00 0.00 90 1003.9
20260506135251 78 110 1.0 6.0 0.00 0.00 0.00 90 1003.9
20260506135150 77 110 2.0 6.0 0.00 0.00 0.00 90 1003.8
20260506135051 77 110 4.0 6.0 0.00 0.00 0.00 90 1003.8
20260506134951 77 104 3.0 6.0 0.00 0.00 0.00 90 1003.8
20260506134851 77 109 3.0 6.0 0.00 0.00 0.00 90 1003.8
20260506134750 77 107 2.0 6.0 0.00 0.00 0.00 90 1003.7
20260506134650 77 116 2.0 6.0 0.00 0.00 0.00 90 1003.8
20260506134549 77 110 3.0 6.0 0.00 0.00 0.00 90 1003.8
20260506134449 77 152 3.0 6.0 0.00 0.00 0.00 90 1003.7
20260506134349 77 130 3.0 6.0 0.00 0.00 0.00 91 1003.8
20260506134249 77 138 3.0 6.0 0.00 0.00 0.00 91 1003.9
20260506134149 77 133 4.0 6.0 0.00 0.00 0.00 91 1003.8
20260506134050 77 121 4.0 6.0 0.00 0.00 0.00 91 1003.8
20260506133950 77 103 4.0 6.0 0.00 0.00 0.00 91 1003.8
20260506133850 77 109 5.0 6.0 0.00 0.00 0.00 91 1003.8
20260506133751 77 117 4.0 6.0 0.00 0.00 0.00 91 1003.8
20260506133651 77 128 4.0 6.0 0.00 0.00 0.00 91 1003.8
20260506133550 77 142 4.0 6.0 0.00 0.00 0.00 91 1003.8
20260506133450 77 133 4.0 6.0 0.00 0.00 0.00 91 1003.8
20260506133350 77 137 3.0 5.0 0.00 0.00 0.00 91 1003.8
20260506133249 77 135 2.0 5.0 0.00 0.00 0.00 91 1003.9
20260506133149 77 137 2.0 5.0 0.00 0.00 0.00 91 1004.0
20260506133051 77 137 2.0 5.0 0.00 0.00 0.00 91 1003.9
20260506132951 77 138 2.0 5.0 0.00 0.00 0.00 91 1003.9
20260506132849 77 127 2.0 6.0 0.00 0.00 0.00 91 1003.9
20260506132749 76 131 2.0 6.0 0.00 0.00 0.00 91 1003.9
20260506132650 76 131 2.0 6.0 0.00 0.00 0.00 91 1003.8
20260506132549 76 125 4.0 6.0 0.00 0.00 0.00 91 1003.9
20260506132449 76 116 4.0 6.0 0.00 0.00 0.00 91 1003.8
20260506132350 76 116 4.0 6.0 0.00 0.00 0.00 91 1003.9
20260506132250 76 110 2.0 6.0 0.00 0.00 0.00 92 1003.8
20260506132150 76 110 2.0 6.0 0.00 0.00 0.00 92 1003.9
20260506132050 76 109 4.0 6.0 0.00 0.00 0.00 92 1003.9
20260506131950 76 111 4.0 6.0 0.00 0.00 0.00 92 1003.9
20260506131847 76 99 3.0 5.0 0.00 0.00 0.00 92 1004.0
20260506131742 76 120 3.0 5.0 0.00 0.00 0.00 91 1004.1
20260506131640 76 140 3.0 5.0 0.00 0.00 0.00 91 1004.1
20260506131539 76 125 2.0 5.0 0.00 0.00 0.00 91 1004.1
20260506131431 76 161 2.0 5.0 0.00 0.00 0.00 91 1004.1
20260506131331 76 149 2.0 5.0 0.00 0.00 0.00 92 1004.1
20260506131233 76 148 2.0 5.0 0.00 0.00 0.00 92 1004.2
20260506131131 76 123 3.0 5.0 0.00 0.00 0.00 92 1004.1
20260506131032 76 118 2.0 5.0 0.00 0.00 0.00 92 1004.1
20260506130924 76 144 1.0 5.0 0.00 0.00 0.00 92 1004.1
20260506130824 76 144 2.0 5.0 0.00 0.00 0.00 92 1004.1
20260506130722 76 142 3.0 5.0 0.00 0.00 0.00 92 1004.0